Observation data for Colorado City on 06/26/2019      Previous  Date  Next       Current Mesonet Observations  Soil Data  Daily Summary Page  Observations in Plain Language
KCO2 260500Z 13007KT 24/17 A3005 RMK A01 T02360169  RH  066%=      5-min Rain = 0
KCO2 260501Z 12007KT 24/17 A3005 RMK A01 T02360169  RH  066%=      5-min Rain = 0
KCO2 260502Z 12007KT 24/17 A3005 RMK A01 T02360169  RH  066%=      5-min Rain = 0
KCO2 260503Z 13008KT 24/17 A3005 RMK A01 T02360169  RH  066%=      5-min Rain = 0
KCO2 260504Z 12007KT 24/17 A3005 RMK A01 T02370169  RH  066%=      5-min Rain = 0
KCO2 260505Z 12007KT 24/17 A3005 RMK A01 T02370169  RH  066%=      5-min Rain = 0
KCO2 260506Z 12007KT 24/17 A3005 RMK A01 T02370169  RH  066%=      5-min Rain = 0
KCO2 260507Z 12006KT 24/17 A3006 RMK A01 T02380169  RH  066%=      5-min Rain = 0
KCO2 260508Z 12007KT 24/17 A3006 RMK A01 T02370170  RH  066%=      5-min Rain = 0
KCO2 260509Z 12007KT 24/17 A3006 RMK A01 T02370170  RH  066%=      5-min Rain = 0
KCO2 260510Z 12007KT 24/17 A3006 RMK A01 T02370170  RH  066%=      5-min Rain = 0
KCO2 260511Z 12007KT 24/17 A3006 RMK A01 T02360170  RH  066%=      5-min Rain = 0
KCO2 260512Z 11006KT 24/17 A3006 RMK A01 T02360170  RH  066%=      5-min Rain = 0
KCO2 260513Z 11006KT 24/17 A3006 RMK A01 T02360170  RH  067%=      5-min Rain = 0
KCO2 260514Z 12006KT 24/17 A3006 RMK A01 T02350170  RH  067%=      5-min Rain = 0
KCO2 260515Z 12006KT 23/17 A3006 RMK A01 T02340171  RH  067%=      5-min Rain = 0
KCO2 260516Z 12007KT 23/17 A3006 RMK A01 T02340170  RH  068%=      5-min Rain = 0
KCO2 260517Z 11007KT 23/17 A3006 RMK A01 T02330171  RH  068%=      5-min Rain = 0
KCO2 260518Z 12006KT 23/17 A3006 RMK A01 T02330171  RH  068%=      5-min Rain = 0
KCO2 260519Z 12006KT 23/17 A3006 RMK A01 T02330171  RH  068%=      5-min Rain = 0
KCO2 260520Z 12007KT 23/17 A3006 RMK A01 T02320171  RH  068%=      5-min Rain = 0
KCO2 260521Z 12007KT 23/17 A3006 RMK A01 T02320171  RH  068%=      5-min Rain = 0
KCO2 260522Z 11007KT 23/17 A3006 RMK A01 T02320171  RH  069%=      5-min Rain = 0
KCO2 260523Z 12007KT 23/17 A3006 RMK A01 T02310171  RH  069%=      5-min Rain = 0
KCO2 260524Z 12007KT 23/17 A3006 RMK A01 T02310171  RH  069%=      5-min Rain = 0
KCO2 260525Z 12006KT 23/17 A3006 RMK A01 T02310171  RH  069%=      5-min Rain = 0
KCO2 260526Z 12006KT 23/17 A3006 RMK A01 T02300171  RH  069%=      5-min Rain = 0
KCO2 260527Z 12006KT 23/17 A3006 RMK A01 T02310172  RH  069%=      5-min Rain = 0
KCO2 260528Z 12006KT 23/17 A3006 RMK A01 T02300171  RH  070%=      5-min Rain = 0
KCO2 260529Z 12006KT 23/17 A3006 RMK A01 T02290171  RH  070%=      5-min Rain = 0
KCO2 260530Z 12006KT 23/17 A3006 RMK A01 T02290172  RH  070%=      5-min Rain = 0
KCO2 260531Z 12006KT 23/17 A3006 RMK A01 T02290171  RH  070%=      5-min Rain = 0
KCO2 260532Z 12005KT 23/17 A3006 RMK A01 T02290172  RH  070%=      5-min Rain = 0
KCO2 260533Z 12005KT 23/17 A3006 RMK A01 T02280171  RH  070%=      5-min Rain = 0
KCO2 260534Z 12005KT 23/17 A3006 RMK A01 T02270171  RH  071%=      5-min Rain = 0
KCO2 260535Z 12006KT 23/17 A3006 RMK A01 T02270172  RH  071%=      5-min Rain = 0
KCO2 260536Z 12006KT 23/17 A3006 RMK A01 T02260172  RH  071%=      5-min Rain = 0
KCO2 260537Z 12006KT 23/17 A3006 RMK A01 T02260172  RH  071%=      5-min Rain = 0
KCO2 260538Z 12006KT 23/17 A3006 RMK A01 T02260172  RH  071%=      5-min Rain = 0
KCO2 260539Z 12005KT 23/17 A3006 RMK A01 T02260172  RH  072%=      5-min Rain = 0
KCO2 260540Z 13005KT 23/17 A3007 RMK A01 T02260172  RH  072%=      5-min Rain = 0
KCO2 260541Z 12005KT 23/17 A3007 RMK A01 T02250171  RH  072%=      5-min Rain = 0
KCO2 260542Z 12004KT 23/17 A3007 RMK A01 T02250172  RH  072%=      5-min Rain = 0
KCO2 260543Z 13004KT 22/17 A3007 RMK A01 T02240171  RH  072%=      5-min Rain = 0
KCO2 260544Z 13005KT 22/17 A3007 RMK A01 T02240172  RH  072%=      5-min Rain = 0
KCO2 260545Z 13005KT 22/17 A3007 RMK A01 T02230171  RH  072%=      5-min Rain = 0
KCO2 260546Z 13005KT 22/17 A3007 RMK A01 T02230171  RH  073%=      5-min Rain = 0
KCO2 260547Z 12005KT 22/17 A3007 RMK A01 T02220171  RH  073%=      5-min Rain = 0
KCO2 260548Z 13004KT 22/17 A3007 RMK A01 T02220172  RH  073%=      5-min Rain = 0
KCO2 260549Z 13004KT 22/17 A3007 RMK A01 T02220171  RH  073%=      5-min Rain = 0
KCO2 260550Z 12004KT 22/17 A3007 RMK A01 T02220171  RH  073%=      5-min Rain = 0
KCO2 260551Z 13004KT 22/17 A3007 RMK A01 T02220171  RH  073%=      5-min Rain = 0
KCO2 260552Z 13004KT 22/17 A3007 RMK A01 T02230172  RH  073%=      5-min Rain = 0
KCO2 260553Z 13003KT 22/17 A3007 RMK A01 T02230171  RH  073%=      5-min Rain = 0
KCO2 260554Z 13003KT 22/17 A3007 RMK A01 T02240172  RH  072%=      5-min Rain = 0
KCO2 260555Z 12003KT 22/17 A3007 RMK A01 T02240172  RH  072%=      5-min Rain = 0
KCO2 260556Z 11003KT 23/17 A3007 RMK A01 T02250172  RH  072%=      5-min Rain = 0
KCO2 260557Z 11003KT 23/17 A3007 RMK A01 T02250172  RH  072%=      5-min Rain = 0
KCO2 260558Z 10003KT 23/17 A3008 RMK A01 T02260172  RH  072%=      5-min Rain = 0
KCO2 260559Z 10003KT 23/17 A3008 RMK A01 T02260172  RH  072%=      5-min Rain = 0
KCO2 260600Z 10003KT 23/17 A3008 RMK A01 T02250172  RH  072%=      5-min Rain = 0
KCO2 260601Z 09003KT 22/17 A3008 RMK A01 T02240172  RH  072%=      5-min Rain = 0
KCO2 260602Z 08003KT 22/17 A3008 RMK A01 T02220172  RH  073%=      5-min Rain = 0
KCO2 260603Z 08003KT 22/17 A3008 RMK A01 T02210172  RH  074%=      5-min Rain = 0
KCO2 260604Z 08003KT 22/17 A3008 RMK A01 T02190171  RH  074%=      5-min Rain = 0
KCO2 260605Z 07004KT 22/17 A3008 RMK A01 T02180171  RH  075%=      5-min Rain = 0
KCO2 260606Z 07004KT 22/17 A3008 RMK A01 T02180171  RH  075%=      5-min Rain = 0
KCO2 260607Z 07004KT 22/17 A3008 RMK A01 T02170171  RH  075%=      5-min Rain = 0
KCO2 260608Z 07004KT 22/17 A3008 RMK A01 T02160171  RH  075%=      5-min Rain = 0
KCO2 260609Z 07004KT 22/17 A3008 RMK A01 T02170172  RH  075%=      5-min Rain = 0
KCO2 260610Z 07005KT 22/17 A3008 RMK A01 T02160171  RH  075%=      5-min Rain = 0
KCO2 260611Z 07005KT 22/17 A3008 RMK A01 T02170171  RH  075%=      5-min Rain = 0
KCO2 260612Z 07006KT 22/17 A3008 RMK A01 T02170171  RH  075%=      5-min Rain = 0
KCO2 260613Z 07006KT 22/17 A3008 RMK A01 T02170171  RH  075%=      5-min Rain = 0
KCO2 260614Z 06006KT 22/17 A3008 RMK A01 T02170171  RH  075%=      5-min Rain = 0
KCO2 260615Z 06006KT 22/17 A3008 RMK A01 T02170171  RH  075%=      5-min Rain = 0
KCO2 260616Z 06006KT 22/17 A3008 RMK A01 T02170172  RH  075%=      5-min Rain = 0
KCO2 260617Z 06006KT 22/17 A3008 RMK A01 T02170171  RH  075%=      5-min Rain = 0
KCO2 260618Z 06007KT 22/17 A3008 RMK A01 T02170171  RH  075%=      5-min Rain = 0
KCO2 260619Z 06007KT 22/17 A3008 RMK A01 T02170172  RH  075%=      5-min Rain = 0
KCO2 260620Z 06007KT 22/17 A3008 RMK A01 T02180172  RH  075%=      5-min Rain = 0
KCO2 260621Z 06007KT 22/17 A3008 RMK A01 T02180172  RH  075%=      5-min Rain = 0
KCO2 260622Z 06007KT 22/17 A3008 RMK A01 T02180172  RH  075%=      5-min Rain = 0
KCO2 260623Z 06007KT 22/17 A3009 RMK A01 T02180172  RH  075%=      5-min Rain = 0
KCO2 260624Z 05007KT 22/17 A3009 RMK A01 T02180172  RH  075%=      5-min Rain = 0
KCO2 260625Z 05007KT 22/17 A3009 RMK A01 T02190173  RH  075%=      5-min Rain = 0
KCO2 260626Z 05007KT 22/17 A3009 RMK A01 T02190173  RH  075%=      5-min Rain = 0
KCO2 260627Z 05007KT 22/17 A3009 RMK A01 T02180173  RH  075%=      5-min Rain = 0
KCO2 260628Z 06007KT 22/17 A3009 RMK A01 T02190173  RH  075%=      5-min Rain = 0
KCO2 260629Z 06007KT 22/17 A3009 RMK A01 T02190173  RH  075%=      5-min Rain = 0
KCO2 260630Z 06008KT 22/17 A3009 RMK A01 T02190173  RH  075%=      5-min Rain = 0
KCO2 260631Z 06008KT 22/17 A3009 RMK A01 T02200173  RH  075%=      5-min Rain = 0
KCO2 260632Z 06008KT 22/17 A3009 RMK A01 T02200173  RH  075%=      5-min Rain = 0
KCO2 260633Z 06008KT 22/17 A3009 RMK A01 T02200174  RH  075%=      5-min Rain = 0
KCO2 260634Z 06008KT 22/17 A3009 RMK A01 T02200174  RH  075%=      5-min Rain = 0
KCO2 260635Z 06007KT 22/17 A3009 RMK A01 T02200174  RH  075%=      5-min Rain = 0
KCO2 260636Z 07007KT 22/17 A3009 RMK A01 T02200174  RH  075%=      5-min Rain = 0
KCO2 260637Z 07006KT 22/17 A3009 RMK A01 T02190174  RH  075%=      5-min Rain = 0
KCO2 260638Z 07006KT 22/17 A3009 RMK A01 T02190174  RH  076%=      5-min Rain = 0
KCO2 260639Z 07006KT 22/17 A3009 RMK A01 T02180174  RH  076%=      5-min Rain = 0
KCO2 260640Z 07006KT 22/17 A3009 RMK A01 T02180174  RH  076%=      5-min Rain = 0
KCO2 260641Z 07006KT 22/17 A3009 RMK A01 T02180174  RH  076%=      5-min Rain = 0
KCO2 260642Z 07005KT 22/17 A3009 RMK A01 T02180174  RH  076%=      5-min Rain = 0
KCO2 260643Z 07005KT 22/17 A3009 RMK A01 T02180174  RH  076%=      5-min Rain = 0
KCO2 260644Z 07004KT 22/17 A3009 RMK A01 T02180174  RH  076%=      5-min Rain = 0
KCO2 260645Z 07005KT 22/17 A3009 RMK A01 T02180174  RH  076%=      5-min Rain = 0
KCO2 260646Z 07006KT 22/17 A3009 RMK A01 T02180174  RH  076%=      5-min Rain = 0
KCO2 260647Z 08005KT 22/17 A3009 RMK A01 T02190174  RH  076%=      5-min Rain = 0
KCO2 260648Z 08005KT 22/18 A3009 RMK A01 T02190175  RH  076%=      5-min Rain = 0
KCO2 260649Z 08006KT 22/17 A3009 RMK A01 T02190174  RH  076%=      5-min Rain = 0
KCO2 260650Z 08006KT 22/18 A3009 RMK A01 T02190175  RH  076%=      5-min Rain = 0
KCO2 260651Z 09006KT 22/18 A3009 RMK A01 T02190175  RH  076%=      5-min Rain = 0
KCO2 260652Z 09006KT 22/18 A3009 RMK A01 T02190175  RH  076%=      5-min Rain = 0
KCO2 260653Z 09006KT 22/18 A3009 RMK A01 T02190175  RH  076%=      5-min Rain = 0
KCO2 260654Z 09007KT 22/18 A3009 RMK A01 T02190175  RH  076%=      5-min Rain = 0
KCO2 260655Z 09006KT 22/18 A3008 RMK A01 T02190175  RH  076%=      5-min Rain = 0
KCO2 260656Z 10007KT 22/18 A3008 RMK A01 T02190175  RH  076%=      5-min Rain = 0
KCO2 260657Z 10007KT 22/18 A3008 RMK A01 T02180175  RH  076%=      5-min Rain = 0
KCO2 260658Z 10007KT 22/18 A3008 RMK A01 T02170175  RH  077%=      5-min Rain = 0
KCO2 260659Z 10007KT 22/18 A3008 RMK A01 T02160175  RH  077%=      5-min Rain = 0
KCO2 260700Z 10007KT 22/17 A3008 RMK A01 T02150174  RH  077%=      5-min Rain = 0
KCO2 260701Z 10007KT 22/18 A3008 RMK A01 T02150175  RH  078%=      5-min Rain = 0
KCO2 260702Z 09007KT 22/18 A3008 RMK A01 T02150175  RH  078%=      5-min Rain = 0
KCO2 260703Z 09006KT 22/18 A3008 RMK A01 T02150175  RH  078%=      5-min Rain = 0
KCO2 260704Z 09006KT 22/18 A3008 RMK A01 T02160175  RH  077%=      5-min Rain = 0
KCO2 260705Z 08006KT 22/18 A3008 RMK A01 T02180175  RH  077%=      5-min Rain = 0
KCO2 260706Z 08006KT 22/18 A3008 RMK A01 T02180175  RH  076%=      5-min Rain = 0
KCO2 260707Z 09006KT 22/18 A3008 RMK A01 T02190175  RH  076%=      5-min Rain = 0
KCO2 260708Z 09006KT 22/18 A3008 RMK A01 T02170175  RH  077%=      5-min Rain = 0
KCO2 260709Z 09006KT 22/18 A3008 RMK A01 T02170175  RH  077%=      5-min Rain = 0
KCO2 260710Z 09005KT 22/18 A3008 RMK A01 T02160175  RH  077%=      5-min Rain = 0
KCO2 260711Z 09005KT 22/18 A3008 RMK A01 T02160175  RH  078%=      5-min Rain = 0
KCO2 260712Z 10005KT 22/18 A3008 RMK A01 T02150175  RH  078%=      5-min Rain = 0
KCO2 260713Z 10006KT 22/18 A3008 RMK A01 T02160175  RH  078%=      5-min Rain = 0
KCO2 260714Z 11006KT 22/18 A3008 RMK A01 T02150175  RH  078%=      5-min Rain = 0
KCO2 260715Z 11006KT 22/18 A3008 RMK A01 T02150175  RH  078%=      5-min Rain = 0
KCO2 260716Z 12006KT 21/17 A3008 RMK A01 T02140174  RH  078%=      5-min Rain = 0
KCO2 260717Z 12007KT 21/17 A3008 RMK A01 T02130174  RH  079%=      5-min Rain = 0
KCO2 260718Z 12007KT 21/17 A3008 RMK A01 T02120174  RH  079%=      5-min Rain = 0
KCO2 260719Z 12008KT 21/17 A3008 RMK A01 T02110174  RH  079%=      5-min Rain = 0
KCO2 260720Z 12008KT 21/17 A3008 RMK A01 T02110174  RH  080%=      5-min Rain = 0
KCO2 260721Z 12008KT 21/17 A3008 RMK A01 T02100174  RH  080%=      5-min Rain = 0
KCO2 260722Z 12008KT 21/18 A3008 RMK A01 T02100175  RH  080%=      5-min Rain = 0
KCO2 260723Z 12008KT 21/18 A3008 RMK A01 T02110175  RH  080%=      5-min Rain = 0
KCO2 260724Z 12008KT 21/18 A3008 RMK A01 T02110175  RH  080%=      5-min Rain = 0
KCO2 260725Z 12008KT 21/17 A3008 RMK A01 T02100174  RH  080%=      5-min Rain = 0
KCO2 260726Z 13007KT 21/17 A3008 RMK A01 T02100174  RH  080%=      5-min Rain = 0
KCO2 260727Z 13008KT 21/18 A3008 RMK A01 T02100175  RH  080%=      5-min Rain = 0
KCO2 260728Z 14007KT 21/18 A3008 RMK A01 T02100175  RH  080%=      5-min Rain = 0
KCO2 260729Z 14008KT 21/18 A3008 RMK A01 T02100175  RH  081%=      5-min Rain = 0
KCO2 260730Z 15008KT 21/18 A3008 RMK A01 T02090175  RH  081%=      5-min Rain = 0
KCO2 260731Z 15008KT 21/17 A3008 RMK A01 T02070174  RH  081%=      5-min Rain = 0
KCO2 260732Z 15008KT 21/18 A3008 RMK A01 T02070175  RH  082%=      5-min Rain = 0
KCO2 260733Z 15009KT 21/18 A3007 RMK A01 T02070175  RH  082%=      5-min Rain = 0
KCO2 260734Z 15009KT 21/18 A3007 RMK A01 T02070176  RH  083%=      5-min Rain = 0
KCO2 260735Z 15008KT 21/18 A3007 RMK A01 T02070176  RH  082%=      5-min Rain = 0
KCO2 260736Z 16008KT 21/18 A3007 RMK A01 T02070176  RH  082%=      5-min Rain = 0
KCO2 260737Z 15008KT 21/18 A3007 RMK A01 T02070176  RH  082%=      5-min Rain = 0
KCO2 260738Z 15007KT 21/18 A3007 RMK A01 T02070177  RH  083%=      5-min Rain = 0
KCO2 260739Z 15007KT 21/18 A3007 RMK A01 T02070177  RH  083%=      5-min Rain = 0
KCO2 260740Z 15006KT 21/18 A3008 RMK A01 T02080178  RH  083%=      5-min Rain = 0
KCO2 260741Z 15006KT 21/18 A3008 RMK A01 T02080178  RH  083%=      5-min Rain = 0
KCO2 260742Z 14005KT 21/18 A3008 RMK A01 T02080178  RH  083%=      5-min Rain = 0
KCO2 260743Z 14006KT 21/18 A3008 RMK A01 T02080178  RH  083%=      5-min Rain = 0
KCO2 260744Z 14006KT 21/18 A3008 RMK A01 T02080178  RH  083%=      5-min Rain = 0
KCO2 260745Z 14006KT 21/18 A3008 RMK A01 T02080178  RH  083%=      5-min Rain = 0
KCO2 260746Z 14006KT 21/18 A3008 RMK A01 T02090179  RH  083%=      5-min Rain = 0
KCO2 260747Z 14006KT 21/18 A3007 RMK A01 T02080178  RH  083%=      5-min Rain = 0
KCO2 260748Z 14006KT 21/18 A3007 RMK A01 T02090179  RH  083%=      5-min Rain = 0
KCO2 260749Z 14006KT 21/18 A3007 RMK A01 T02090179  RH  083%=      5-min Rain = 0
KCO2 260750Z 14006KT 21/18 A3007 RMK A01 T02090179  RH  083%=      5-min Rain = 0
KCO2 260751Z 15006KT 21/18 A3007 RMK A01 T02090179  RH  083%=      5-min Rain = 0
KCO2 260752Z 15006KT 21/18 A3007 RMK A01 T02090179  RH  083%=      5-min Rain = 0
KCO2 260753Z 15006KT 21/18 A3007 RMK A01 T02090179  RH  083%=      5-min Rain = 0
KCO2 260754Z 15007KT 21/18 A3007 RMK A01 T02090179  RH  083%=      5-min Rain = 0
KCO2 260755Z 15007KT 21/18 A3007 RMK A01 T02080178  RH  083%=      5-min Rain = 0
KCO2 260756Z 15007KT 21/18 A3007 RMK A01 T02080179  RH  083%=      5-min Rain = 0
KCO2 260757Z 15007KT 21/18 A3007 RMK A01 T02080179  RH  083%=      5-min Rain = 0
KCO2 260758Z 14007KT 21/18 A3007 RMK A01 T02090179  RH  083%=      5-min Rain = 0
KCO2 260759Z 14007KT 21/18 A3007 RMK A01 T02100179  RH  083%=      5-min Rain = 0
KCO2 260800Z 14007KT 21/18 A3007 RMK A01 T02100179  RH  082%=      5-min Rain = 0
KCO2 260801Z 14008KT 21/18 A3007 RMK A01 T02110179  RH  082%=      5-min Rain = 0
KCO2 260802Z 14007KT 21/18 A3007 RMK A01 T02110179  RH  082%=      5-min Rain = 0
KCO2 260803Z 14007KT 21/18 A3007 RMK A01 T02110180  RH  082%=      5-min Rain = 0
KCO2 260804Z 14007KT 21/18 A3007 RMK A01 T02110180  RH  082%=      5-min Rain = 0
KCO2 260805Z 14007KT 21/18 A3007 RMK A01 T02110180  RH  082%=      5-min Rain = 0
KCO2 260806Z 14007KT 21/18 A3007 RMK A01 T02110180  RH  082%=      5-min Rain = 0
KCO2 260807Z 14007KT 21/18 A3007 RMK A01 T02100180  RH  083%=      5-min Rain = 0
KCO2 260808Z 14006KT 21/18 A3007 RMK A01 T02100180  RH  083%=      5-min Rain = 0
KCO2 260809Z 14006KT 21/18 A3007 RMK A01 T02100180  RH  083%=      5-min Rain = 0
KCO2 260810Z 14007KT 21/18 A3007 RMK A01 T02100181  RH  084%=      5-min Rain = 0
KCO2 260811Z 15006KT 21/18 A3007 RMK A01 T02110181  RH  083%=      5-min Rain = 0
KCO2 260812Z 14007KT 21/18 A3007 RMK A01 T02120182  RH  083%=      5-min Rain = 0
KCO2 260813Z 15007KT 21/18 A3007 RMK A01 T02120182  RH  083%=      5-min Rain = 0
KCO2 260814Z 15006KT 21/18 A3007 RMK A01 T02120182  RH  083%=      5-min Rain = 0
KCO2 260815Z 15007KT 21/18 A3007 RMK A01 T02130183  RH  083%=      5-min Rain = 0
KCO2 260816Z 15006KT 21/18 A3007 RMK A01 T02130183  RH  083%=      5-min Rain = 0
KCO2 260817Z 15005KT 21/18 A3007 RMK A01 T02130183  RH  083%=      5-min Rain = 0
KCO2 260818Z 15005KT 21/18 A3007 RMK A01 T02130184  RH  083%=      5-min Rain = 0
KCO2 260819Z 15005KT 21/18 A3007 RMK A01 T02130183  RH  083%=      5-min Rain = 0
KCO2 260820Z 15006KT 21/18 A3007 RMK A01 T02130184  RH  083%=      5-min Rain = 0
KCO2 260821Z 15005KT 21/18 A3007 RMK A01 T02130184  RH  083%=      5-min Rain = 0
KCO2 260822Z 15006KT 21/18 A3007 RMK A01 T02120183  RH  084%=      5-min Rain = 0
KCO2 260823Z 15005KT 21/18 A3007 RMK A01 T02120183  RH  084%=      5-min Rain = 0
KCO2 260824Z 16005KT 21/18 A3007 RMK A01 T02110183  RH  084%=      5-min Rain = 0
KCO2 260825Z 16005KT 21/18 A3007 RMK A01 T02110183  RH  084%=      5-min Rain = 0
KCO2 260826Z 16005KT 21/18 A3007 RMK A01 T02100183  RH  084%=      5-min Rain = 0
KCO2 260827Z 16004KT 21/18 A3007 RMK A01 T02100183  RH  085%=      5-min Rain = 0
KCO2 260828Z 16005KT 21/18 A3007 RMK A01 T02090183  RH  085%=      5-min Rain = 0
KCO2 260829Z 16004KT 21/18 A3007 RMK A01 T02090183  RH  085%=      5-min Rain = 0
KCO2 260830Z 17005KT 21/18 A3007 RMK A01 T02080182  RH  085%=      5-min Rain = 0
KCO2 260831Z 17005KT 21/18 A3007 RMK A01 T02080182  RH  085%=      5-min Rain = 0
KCO2 260832Z 17005KT 21/18 A3007 RMK A01 T02070182  RH  086%=      5-min Rain = 0
KCO2 260833Z 16005KT 21/18 A3007 RMK A01 T02060181  RH  086%=      5-min Rain = 0
KCO2 260834Z 17005KT 21/18 A3007 RMK A01 T02050181  RH  086%=      5-min Rain = 0
KCO2 260835Z 17005KT 21/18 A3007 RMK A01 T02050182  RH  086%=      5-min Rain = 0
KCO2 260836Z 16005KT 21/18 A3007 RMK A01 T02050181  RH  086%=      5-min Rain = 0
KCO2 260837Z 16005KT 20/18 A3007 RMK A01 T02040181  RH  087%=      5-min Rain = 0
KCO2 260838Z 16005KT 20/18 A3007 RMK A01 T02040181  RH  087%=      5-min Rain = 0
KCO2 260839Z 15006KT 20/18 A3007 RMK A01 T02030181  RH  087%=      5-min Rain = 0
KCO2 260840Z 15006KT 20/18 A3007 RMK A01 T02030181  RH  087%=      5-min Rain = 0
KCO2 260841Z 16006KT 20/18 A3007 RMK A01 T02030181  RH  087%=      5-min Rain = 0
KCO2 260842Z 16006KT 20/18 A3006 RMK A01 T02030181  RH  088%=      5-min Rain = 0
KCO2 260843Z 16006KT 20/18 A3006 RMK A01 T02030182  RH  088%=      5-min Rain = 0
KCO2 260844Z 16006KT 20/18 A3007 RMK A01 T02020181  RH  088%=      5-min Rain = 0
KCO2 260845Z 16006KT 20/18 A3007 RMK A01 T02020182  RH  088%=      5-min Rain = 0
KCO2 260846Z 16006KT 20/18 A3007 RMK A01 T02020181  RH  088%=      5-min Rain = 0
KCO2 260847Z 16007KT 20/18 A3007 RMK A01 T02020182  RH  088%=      5-min Rain = 0
KCO2 260848Z 16007KT 20/18 A3007 RMK A01 T02020182  RH  088%=      5-min Rain = 0
KCO2 260849Z 16007KT 20/18 A3006 RMK A01 T02020182  RH  088%=      5-min Rain = 0
KCO2 260850Z 17006KT 20/18 A3006 RMK A01 T02020182  RH  088%=      5-min Rain = 0
KCO2 260851Z 17006KT 20/18 A3006 RMK A01 T02030183  RH  088%=      5-min Rain = 0
KCO2 260852Z 17006KT 20/18 A3006 RMK A01 T02030183  RH  088%=      5-min Rain = 0
KCO2 260853Z 17006KT 20/18 A3006 RMK A01 T02030183  RH  088%=      5-min Rain = 0
KCO2 260854Z 17007KT 20/18 A3006 RMK A01 T02030183  RH  089%=      5-min Rain = 0
KCO2 260855Z 16007KT 20/18 A3006 RMK A01 T02030183  RH  089%=      5-min Rain = 0
KCO2 260856Z 16007KT 20/18 A3006 RMK A01 T02030183  RH  089%=      5-min Rain = 0
KCO2 260857Z 16007KT 20/18 A3006 RMK A01 T02030183  RH  089%=      5-min Rain = 0
KCO2 260858Z 16007KT 20/18 A3006 RMK A01 T02030183  RH  089%=      5-min Rain = 0
KCO2 260859Z 16007KT 20/18 A3006 RMK A01 T02030183  RH  089%=      5-min Rain = 0
KCO2 260900Z 16007KT 20/18 A3006 RMK A01 T02030183  RH  089%=      5-min Rain = 0
KCO2 260901Z 16007KT 20/18 A3006 RMK A01 T02030183  RH  088%=      5-min Rain = 0
KCO2 260902Z 16007KT 20/18 A3006 RMK A01 T02030183  RH  088%=      5-min Rain = 0
KCO2 260903Z 16007KT 20/18 A3006 RMK A01 T02030183  RH  088%=      5-min Rain = 0
KCO2 260904Z 16006KT 20/18 A3006 RMK A01 T02030183  RH  088%=      5-min Rain = 0
KCO2 260905Z 16006KT 20/18 A3006 RMK A01 T02020183  RH  089%=      5-min Rain = 0
KCO2 260906Z 16005KT 20/18 A3006 RMK A01 T02020183  RH  089%=      5-min Rain = 0
KCO2 260907Z 16005KT 20/18 A3006 RMK A01 T02020183  RH  089%=      5-min Rain = 0
KCO2 260908Z 15005KT 20/18 A3006 RMK A01 T02010182  RH  089%=      5-min Rain = 0
KCO2 260909Z 15005KT 20/18 A3006 RMK A01 T02010182  RH  089%=      5-min Rain = 0
KCO2 260910Z 15006KT 20/18 A3006 RMK A01 T02000182  RH  089%=      5-min Rain = 0
KCO2 260911Z 15006KT 20/18 A3006 RMK A01 T02000182  RH  089%=      5-min Rain = 0
KCO2 260912Z 15006KT 20/18 A3006 RMK A01 T02000182  RH  089%=      5-min Rain = 0
KCO2 260913Z 15006KT 20/18 A3006 RMK A01 T02000182  RH  089%=      5-min Rain = 0
KCO2 260914Z 15006KT 20/18 A3006 RMK A01 T02000182  RH  090%=      5-min Rain = 0
KCO2 260915Z 16006KT 20/18 A3006 RMK A01 T02000183  RH  090%=      5-min Rain = 0
KCO2 260916Z 16006KT 20/18 A3006 RMK A01 T02000183  RH  090%=      5-min Rain = 0
KCO2 260917Z 16006KT 20/18 A3006 RMK A01 T02000183  RH  090%=      5-min Rain = 0
KCO2 260918Z 16006KT 20/18 A3006 RMK A01 T02010184  RH  090%=      5-min Rain = 0
KCO2 260919Z 16006KT 20/18 A3006 RMK A01 T02010184  RH  090%=      5-min Rain = 0
KCO2 260920Z 16006KT 20/18 A3006 RMK A01 T02020184  RH  090%=      5-min Rain = 0
KCO2 260921Z 16006KT 20/18 A3006 RMK A01 T02020184  RH  089%=      5-min Rain = 0
KCO2 260922Z 16006KT 20/18 A3006 RMK A01 T02020184  RH  089%=      5-min Rain = 0
KCO2 260923Z 16005KT 20/19 A3006 RMK A01 T02020185  RH  090%=      5-min Rain = 0
KCO2 260924Z 16005KT 20/19 A3006 RMK A01 T02020185  RH  090%=      5-min Rain = 0
KCO2 260925Z 16005KT 20/19 A3006 RMK A01 T02020185  RH  090%=      5-min Rain = 0
KCO2 260926Z 16004KT 20/19 A3006 RMK A01 T02020185  RH  090%=      5-min Rain = 0
KCO2 260927Z 16005KT 20/19 A3006 RMK A01 T02020185  RH  090%=      5-min Rain = 0
KCO2 260928Z 16004KT 20/18 A3006 RMK A01 T02020184  RH  090%=      5-min Rain = 0
KCO2 260929Z 16005KT 20/19 A3006 RMK A01 T02020185  RH  090%=      5-min Rain = 0
KCO2 260930Z 16005KT 20/19 A3006 RMK A01 T02020185  RH  090%=      5-min Rain = 0
KCO2 260931Z 16005KT 20/19 A3006 RMK A01 T02020185  RH  090%=      5-min Rain = 0
KCO2 260932Z 16005KT 20/19 A3006 RMK A01 T02020185  RH  090%=      5-min Rain = 0
KCO2 260933Z 17005KT 20/19 A3006 RMK A01 T02020185  RH  090%=      5-min Rain = 0
KCO2 260934Z 16005KT 20/19 A3006 RMK A01 T02020185  RH  090%=      5-min Rain = 0
KCO2 260935Z 17005KT 20/19 A3006 RMK A01 T02020185  RH  090%=      5-min Rain = 0
KCO2 260936Z 17005KT 20/19 A3005 RMK A01 T02020185  RH  090%=      5-min Rain = 0
KCO2 260937Z 17005KT 20/19 A3005 RMK A01 T02020185  RH  090%=      5-min Rain = 0
KCO2 260938Z 18005KT 20/19 A3005 RMK A01 T02010185  RH  090%=      5-min Rain = 0
KCO2 260939Z 17005KT 20/18 A3005 RMK A01 T02010184  RH  090%=      5-min Rain = 0
KCO2 260940Z 18005KT 20/19 A3005 RMK A01 T02010185  RH  090%=      5-min Rain = 0
KCO2 260941Z 18004KT 20/19 A3005 RMK A01 T02010185  RH  090%=      5-min Rain = 0
KCO2 260942Z 18005KT 20/19 A3005 RMK A01 T02010185  RH  090%=      5-min Rain = 0
KCO2 260943Z 19005KT 20/18 A3005 RMK A01 T02010184  RH  090%=      5-min Rain = 0
KCO2 260944Z 19005KT 20/18 A3005 RMK A01 T02020184  RH  090%=      5-min Rain = 0
KCO2 260945Z 19005KT 20/18 A3005 RMK A01 T02010184  RH  090%=      5-min Rain = 0
KCO2 260946Z 19005KT 20/18 A3005 RMK A01 T02010184  RH  090%=      5-min Rain = 0
KCO2 260947Z 20005KT 20/18 A3005 RMK A01 T02010184  RH  090%=      5-min Rain = 0
KCO2 260948Z 19005KT 20/18 A3005 RMK A01 T02000184  RH  090%=      5-min Rain = 0
KCO2 260949Z 19005KT 20/18 A3005 RMK A01 T02000184  RH  090%=      5-min Rain = 0
KCO2 260950Z 19005KT 20/18 A3005 RMK A01 T02010184  RH  090%=      5-min Rain = 0
KCO2 260951Z 19005KT 20/18 A3005 RMK A01 T02010184  RH  090%=      5-min Rain = 0
KCO2 260952Z 19005KT 20/18 A3005 RMK A01 T02010184  RH  090%=      5-min Rain = 0
KCO2 260953Z 18005KT 20/18 A3005 RMK A01 T02010184  RH  090%=      5-min Rain = 0
KCO2 260954Z 18005KT 20/18 A3005 RMK A01 T02010184  RH  090%=      5-min Rain = 0
KCO2 260955Z 18005KT 20/18 A3005 RMK A01 T02010184  RH  090%=      5-min Rain = 0
KCO2 260956Z 17005KT 20/19 A3005 RMK A01 T02020185  RH  090%=      5-min Rain = 0
KCO2 260957Z 17005KT 20/18 A3005 RMK A01 T02010184  RH  090%=      5-min Rain = 0
KCO2 260958Z 17005KT 20/18 A3005 RMK A01 T02010184  RH  090%=      5-min Rain = 0
KCO2 260959Z 17005KT 20/18 A3005 RMK A01 T02010184  RH  090%=      5-min Rain = 0
KCO2 261000Z 16006KT 20/18 A3005 RMK A01 T02000184  RH  090%=      5-min Rain = 0
KCO2 261001Z 16006KT 20/18 A3005 RMK A01 T02000184  RH  091%=      5-min Rain = 0
KCO2 261002Z 16006KT 20/18 A3005 RMK A01 T02000184  RH  091%=      5-min Rain = 0
KCO2 261003Z 16006KT 20/19 A3005 RMK A01 T02000185  RH  091%=      5-min Rain = 0
KCO2 261004Z 16006KT 20/19 A3005 RMK A01 T02000185  RH  091%=      5-min Rain = 0
KCO2 261005Z 16006KT 20/19 A3005 RMK A01 T02000185  RH  091%=      5-min Rain = 0
KCO2 261006Z 16005KT 20/19 A3005 RMK A01 T02000185  RH  091%=      5-min Rain = 0
KCO2 261007Z 15006KT 20/19 A3005 RMK A01 T02000185  RH  091%=      5-min Rain = 0
KCO2 261008Z 15005KT 20/19 A3006 RMK A01 T02000185  RH  091%=      5-min Rain = 0
KCO2 261009Z 15006KT 20/18 A3006 RMK A01 T02000184  RH  091%=      5-min Rain = 0
KCO2 261010Z 15005KT 20/18 A3006 RMK A01 T02000184  RH  091%=      5-min Rain = 0
KCO2 261011Z 15005KT 20/19 A3006 RMK A01 T02000185  RH  091%=      5-min Rain = 0
KCO2 261012Z 15005KT 20/19 A3006 RMK A01 T01990185  RH  091%=      5-min Rain = 0
KCO2 261013Z 15005KT 20/18 A3006 RMK A01 T01990184  RH  091%=      5-min Rain = 0
KCO2 261014Z 15006KT 20/18 A3006 RMK A01 T01990184  RH  091%=      5-min Rain = 0
KCO2 261015Z 15006KT 20/18 A3006 RMK A01 T01990184  RH  091%=      5-min Rain = 0
KCO2 261016Z 15006KT 20/18 A3006 RMK A01 T01990184  RH  091%=      5-min Rain = 0
KCO2 261017Z 15006KT 20/18 A3006 RMK A01 T01980184  RH  091%=      5-min Rain = 0
KCO2 261018Z 16006KT 20/18 A3005 RMK A01 T01990184  RH  091%=      5-min Rain = 0
KCO2 261019Z 16007KT 20/18 A3005 RMK A01 T01980184  RH  092%=      5-min Rain = 0
KCO2 261020Z 16006KT 20/19 A3005 RMK A01 T01990185  RH  092%=      5-min Rain = 0
KCO2 261021Z 16006KT 20/19 A3005 RMK A01 T01980185  RH  092%=      5-min Rain = 0
KCO2 261022Z 16006KT 20/18 A3005 RMK A01 T01980184  RH  092%=      5-min Rain = 0
KCO2 261023Z 16005KT 20/19 A3005 RMK A01 T01990185  RH  092%=      5-min Rain = 0
KCO2 261024Z 17005KT 20/19 A3005 RMK A01 T01980185  RH  092%=      5-min Rain = 0
KCO2 261025Z 16005KT 20/19 A3005 RMK A01 T01990185  RH  092%=      5-min Rain = 0
KCO2 261026Z 16005KT 20/18 A3005 RMK A01 T01980184  RH  092%=      5-min Rain = 0
KCO2 261027Z 16004KT 20/18 A3005 RMK A01 T01980184  RH  092%=      5-min Rain = 0
KCO2 261028Z 16003KT 20/18 A3005 RMK A01 T01980184  RH  092%=      5-min Rain = 0
KCO2 261029Z 16003KT 20/18 A3005 RMK A01 T01980184  RH  092%=      5-min Rain = 0
KCO2 261030Z 17003KT 20/18 A3005 RMK A01 T01980184  RH  092%=      5-min Rain = 0
KCO2 261031Z 18003KT 20/18 A3005 RMK A01 T01980184  RH  092%=      5-min Rain = 0
KCO2 261032Z 18004KT 20/18 A3005 RMK A01 T01980184  RH  092%=      5-min Rain = 0
KCO2 261033Z 17003KT 20/18 A3006 RMK A01 T01970183  RH  092%=      5-min Rain = 0
KCO2 261034Z 18003KT 20/18 A3006 RMK A01 T01970183  RH  092%=      5-min Rain = 0
KCO2 261035Z 18003KT 20/18 A3006 RMK A01 T01970183  RH  092%=      5-min Rain = 0
KCO2 261036Z 18003KT 20/18 A3006 RMK A01 T01960183  RH  092%=      5-min Rain = 0
KCO2 261037Z 19003KT 20/18 A3006 RMK A01 T01960182  RH  092%=      5-min Rain = 0
KCO2 261038Z 19003KT 20/18 A3006 RMK A01 T01960182  RH  092%=      5-min Rain = 0
KCO2 261039Z 18003KT 20/18 A3006 RMK A01 T01950182  RH  092%=      5-min Rain = 0
KCO2 261040Z 18004KT 20/18 A3006 RMK A01 T01960183  RH  092%=      5-min Rain = 0
KCO2 261041Z 18004KT 20/18 A3006 RMK A01 T01950182  RH  092%=      5-min Rain = 0
KCO2 261042Z 18004KT 20/18 A3006 RMK A01 T01950181  RH  092%=      5-min Rain = 0
KCO2 261043Z 18005KT 19/18 A3006 RMK A01 T01940181  RH  092%=      5-min Rain = 0
KCO2 261044Z 17005KT 19/18 A3006 RMK A01 T01940181  RH  092%=      5-min Rain = 0
KCO2 261045Z 17006KT 19/18 A3006 RMK A01 T01940181  RH  092%=      5-min Rain = 0
KCO2 261046Z 18006KT 19/18 A3006 RMK A01 T01930180  RH  092%=      5-min Rain = 0
KCO2 261047Z 18006KT 19/18 A3006 RMK A01 T01930181  RH  092%=      5-min Rain = 0
KCO2 261048Z 18006KT 19/18 A3006 RMK A01 T01930181  RH  093%=      5-min Rain = 0
KCO2 261049Z 18006KT 19/18 A3006 RMK A01 T01930181  RH  093%=      5-min Rain = 0
KCO2 261050Z 18006KT 19/18 A3006 RMK A01 T01930182  RH  093%=      5-min Rain = 0
KCO2 261051Z 18006KT 19/18 A3006 RMK A01 T01930182  RH  093%=      5-min Rain = 0
KCO2 261052Z 18006KT 19/18 A3006 RMK A01 T01930182  RH  093%=      5-min Rain = 0
KCO2 261053Z 18006KT 19/18 A3006 RMK A01 T01920182  RH  093%=      5-min Rain = 0
KCO2 261054Z 17005KT 19/18 A3006 RMK A01 T01920182  RH  093%=      5-min Rain = 0
KCO2 261055Z 18005KT 19/18 A3006 RMK A01 T01920182  RH  094%=      5-min Rain = 0
KCO2 261056Z 18005KT 19/18 A3006 RMK A01 T01920182  RH  094%=      5-min Rain = 0
KCO2 261057Z 18004KT 19/18 A3006 RMK A01 T01920182  RH  094%=      5-min Rain = 0
KCO2 261058Z 18004KT 19/18 A3006 RMK A01 T01920182  RH  094%=      5-min Rain = 0
KCO2 261059Z 18004KT 19/18 A3006 RMK A01 T01920182  RH  094%=      5-min Rain = 0
KCO2 261100Z 18004KT 19/18 A3006 RMK A01 T01920182  RH  094%=      5-min Rain = 0
KCO2 261101Z 18004KT 19/18 A3006 RMK A01 T01920182  RH  094%=      5-min Rain = 0
KCO2 261102Z 18004KT 19/18 A3006 RMK A01 T01920182  RH  094%=      5-min Rain = 0
KCO2 261103Z 18005KT 19/18 A3006 RMK A01 T01910182  RH  094%=      5-min Rain = 0
KCO2 261104Z 17005KT 19/18 A3006 RMK A01 T01910181  RH  094%=      5-min Rain = 0
KCO2 261105Z 17005KT 19/18 A3006 RMK A01 T01910181  RH  094%=      5-min Rain = 0
KCO2 261106Z 17006KT 19/18 A3006 RMK A01 T01910182  RH  094%=      5-min Rain = 0
KCO2 261107Z 17006KT 19/18 A3006 RMK A01 T01910182  RH  094%=      5-min Rain = 0
KCO2 261108Z 17005KT 19/18 A3007 RMK A01 T01910182  RH  094%=      5-min Rain = 0
KCO2 261109Z 17006KT 19/18 A3007 RMK A01 T01920183  RH  095%=      5-min Rain = 0
KCO2 261110Z 17005KT 19/18 A3007 RMK A01 T01920183  RH  094%=      5-min Rain = 0
KCO2 261111Z 18005KT 19/18 A3007 RMK A01 T01930184  RH  094%=      5-min Rain = 0
KCO2 261112Z 18005KT 19/18 A3007 RMK A01 T01930184  RH  094%=      5-min Rain = 0
KCO2 261113Z 18004KT 19/18 A3007 RMK A01 T01930184  RH  094%=      5-min Rain = 0
KCO2 261114Z 18004KT 19/18 A3007 RMK A01 T01930184  RH  094%=      5-min Rain = 0
KCO2 261115Z 17004KT 19/18 A3007 RMK A01 T01930184  RH  094%=      5-min Rain = 0
KCO2 261116Z 18004KT 19/18 A3007 RMK A01 T01930183  RH  094%=      5-min Rain = 0
KCO2 261117Z 18004KT 19/18 A3007 RMK A01 T01930183  RH  094%=      5-min Rain = 0
KCO2 261118Z 17004KT 19/18 A3007 RMK A01 T01920182  RH  094%=      5-min Rain = 0
KCO2 261119Z 17004KT 19/18 A3007 RMK A01 T01920182  RH  094%=      5-min Rain = 0
KCO2 261120Z 16004KT 19/18 A3007 RMK A01 T01920182  RH  094%=      5-min Rain = 0
KCO2 261121Z 16004KT 19/18 A3007 RMK A01 T01910181  RH  094%=      5-min Rain = 0
KCO2 261122Z 15004KT 19/18 A3007 RMK A01 T01900180  RH  094%=      5-min Rain = 0
KCO2 261123Z 15005KT 19/18 A3007 RMK A01 T01890179  RH  094%=      5-min Rain = 0
KCO2 261124Z 15005KT 19/18 A3007 RMK A01 T01890180  RH  094%=      5-min Rain = 0
KCO2 261125Z 15005KT 19/18 A3007 RMK A01 T01900180  RH  094%=      5-min Rain = 0
KCO2 261126Z 15005KT 19/18 A3007 RMK A01 T01890180  RH  094%=      5-min Rain = 0
KCO2 261127Z 15005KT 19/18 A3007 RMK A01 T01890180  RH  094%=      5-min Rain = 0
KCO2 261128Z 15005KT 19/18 A3007 RMK A01 T01890180  RH  094%=      5-min Rain = 0
KCO2 261129Z 16004KT 19/18 A3007 RMK A01 T01890180  RH  094%=      5-min Rain = 0
KCO2 261130Z 16004KT 19/18 A3007 RMK A01 T01890179  RH  094%=      5-min Rain = 0
KCO2 261131Z 16004KT 19/18 A3007 RMK A01 T01890180  RH  094%=      5-min Rain = 0
KCO2 261132Z 16004KT 19/18 A3007 RMK A01 T01880179  RH  094%=      5-min Rain = 0
KCO2 261133Z 16004KT 19/18 A3007 RMK A01 T01880178  RH  094%=      5-min Rain = 0
KCO2 261134Z 16004KT 19/18 A3007 RMK A01 T01870178  RH  094%=      5-min Rain = 0
KCO2 261135Z 17004KT 19/18 A3007 RMK A01 T01870178  RH  095%=      5-min Rain = 0
KCO2 261136Z 17004KT 19/18 A3007 RMK A01 T01870178  RH  095%=      5-min Rain = 0
KCO2 261137Z 18004KT 19/18 A3007 RMK A01 T01870178  RH  095%=      5-min Rain = 0
KCO2 261138Z 18004KT 19/18 A3007 RMK A01 T01870179  RH  095%=      5-min Rain = 0
KCO2 261139Z 18004KT 19/18 A3007 RMK A01 T01870179  RH  095%=      5-min Rain = 0
KCO2 261140Z 18004KT 19/18 A3007 RMK A01 T01870179  RH  095%=      5-min Rain = 0
KCO2 261141Z 18004KT 19/18 A3007 RMK A01 T01870179  RH  095%=      5-min Rain = 0
KCO2 261142Z 18004KT 19/18 A3007 RMK A01 T01870179  RH  095%=      5-min Rain = 0
KCO2 261143Z 18004KT 19/18 A3007 RMK A01 T01870180  RH  095%=      5-min Rain = 0
KCO2 261144Z 18004KT 19/18 A3007 RMK A01 T01880180  RH  095%=      5-min Rain = 0
KCO2 261145Z 18005KT 19/18 A3007 RMK A01 T01880180  RH  095%=      5-min Rain = 0
KCO2 261146Z 18004KT 19/18 A3007 RMK A01 T01880179  RH  095%=      5-min Rain = 0
KCO2 261147Z 18004KT 19/18 A3007 RMK A01 T01870179  RH  095%=      5-min Rain = 0
KCO2 261148Z 18004KT 19/18 A3007 RMK A01 T01870179  RH  095%=      5-min Rain = 0
KCO2 261149Z 18004KT 19/18 A3007 RMK A01 T01860178  RH  095%=      5-min Rain = 0
KCO2 261150Z 18004KT 19/18 A3007 RMK A01 T01860178  RH  095%=      5-min Rain = 0
KCO2 261151Z 18004KT 19/18 A3007 RMK A01 T01860178  RH  095%=      5-min Rain = 0
KCO2 261152Z 17004KT 19/18 A3007 RMK A01 T01860178  RH  095%=      5-min Rain = 0
KCO2 261153Z 17004KT 19/18 A3007 RMK A01 T01860178  RH  095%=      5-min Rain = 0
KCO2 261154Z 17004KT 19/18 A3008 RMK A01 T01860177  RH  095%=      5-min Rain = 0
KCO2 261155Z 17004KT 19/18 A3008 RMK A01 T01860177  RH  095%=      5-min Rain = 0
KCO2 261156Z 17004KT 19/18 A3008 RMK A01 T01860177  RH  095%=      5-min Rain = 0
KCO2 261157Z 18004KT 19/18 A3008 RMK A01 T01860177  RH  095%=      5-min Rain = 0
KCO2 261158Z 18004KT 19/18 A3008 RMK A01 T01860177  RH  095%=      5-min Rain = 0
KCO2 261159Z 18004KT 19/18 A3008 RMK A01 T01860177  RH  095%=      5-min Rain = 0
KCO2 261200Z 18004KT 19/18 A3008 RMK A01 T01860177  RH  095%=      5-min Rain = 0
KCO2 261201Z 18004KT 19/18 A3008 RMK A01 T01860178  RH  095%=      5-min Rain = 0
KCO2 261202Z 18004KT 19/18 A3008 RMK A01 T01870178  RH  095%=      5-min Rain = 0
KCO2 261203Z 18004KT 19/18 A3008 RMK A01 T01870178  RH  095%=      5-min Rain = 0
KCO2 261204Z 17004KT 19/18 A3008 RMK A01 T01870179  RH  095%=      5-min Rain = 0
KCO2 261205Z 17004KT 19/18 A3008 RMK A01 T01870179  RH  095%=      5-min Rain = 0
KCO2 261206Z 17004KT 19/18 A3008 RMK A01 T01870178  RH  094%=      5-min Rain = 0
KCO2 261207Z 17005KT 19/18 A3008 RMK A01 T01870178  RH  095%=      5-min Rain = 0
KCO2 261208Z 17005KT 19/18 A3008 RMK A01 T01880179  RH  095%=      5-min Rain = 0
KCO2 261209Z 17005KT 19/18 A3008 RMK A01 T01880179  RH  095%=      5-min Rain = 0
KCO2 261210Z 17005KT 19/18 A3008 RMK A01 T01880179  RH  094%=      5-min Rain = 0
KCO2 261211Z 17005KT 19/18 A3008 RMK A01 T01880179  RH  094%=      5-min Rain = 0
KCO2 261212Z 17005KT 19/18 A3008 RMK A01 T01890180  RH  094%=      5-min Rain = 0
KCO2 261213Z 17005KT 19/18 A3008 RMK A01 T01890180  RH  094%=      5-min Rain = 0
KCO2 261214Z 17005KT 19/18 A3008 RMK A01 T01900181  RH  095%=      5-min Rain = 0
KCO2 261215Z 16005KT 19/18 A3008 RMK A01 T01910183  RH  095%=      5-min Rain = 0
KCO2 261216Z 16005KT 19/18 A3008 RMK A01 T01920184  RH  095%=      5-min Rain = 0
KCO2 261217Z 16005KT 19/18 A3008 RMK A01 T01930184  RH  095%=      5-min Rain = 0
KCO2 261218Z 16005KT 19/19 A3008 RMK A01 T01940185  RH  095%=      5-min Rain = 0
KCO2 261219Z 16005KT 20/19 A3008 RMK A01 T01950186  RH  094%=      5-min Rain = 0
KCO2 261220Z 16005KT 20/19 A3008 RMK A01 T01950186  RH  094%=      5-min Rain = 0
KCO2 261221Z 16005KT 20/19 A3008 RMK A01 T01960187  RH  094%=      5-min Rain = 0
KCO2 261222Z 16004KT 20/19 A3008 RMK A01 T01970187  RH  094%=      5-min Rain = 0
KCO2 261223Z 15005KT 20/19 A3008 RMK A01 T01980187  RH  094%=      5-min Rain = 0
KCO2 261224Z 15005KT 20/19 A3008 RMK A01 T01980187  RH  093%=      5-min Rain = 0
KCO2 261225Z 15005KT 20/19 A3008 RMK A01 T01990188  RH  093%=      5-min Rain = 0
KCO2 261226Z 15005KT 20/19 A3008 RMK A01 T01990188  RH  093%=      5-min Rain = 0
KCO2 261227Z 15005KT 20/19 A3008 RMK A01 T02000188  RH  093%=      5-min Rain = 0
KCO2 261228Z 14005KT 20/19 A3008 RMK A01 T02000188  RH  093%=      5-min Rain = 0
KCO2 261229Z 14005KT 20/19 A3008 RMK A01 T02010188  RH  093%=      5-min Rain = 0
KCO2 261230Z 14005KT 20/19 A3009 RMK A01 T02010189  RH  092%=      5-min Rain = 0
KCO2 261231Z 14005KT 20/19 A3009 RMK A01 T02020189  RH  092%=      5-min Rain = 0
KCO2 261232Z 13005KT 20/19 A3009 RMK A01 T02020189  RH  092%=      5-min Rain = 0
KCO2 261233Z 14005KT 20/19 A3009 RMK A01 T02030189  RH  092%=      5-min Rain = 0
KCO2 261234Z 14005KT 20/19 A3009 RMK A01 T02040190  RH  092%=      5-min Rain = 0
KCO2 261235Z 14004KT 20/19 A3009 RMK A01 T02040190  RH  092%=      5-min Rain = 0
KCO2 261236Z 14004KT 21/19 A3009 RMK A01 T02050191  RH  092%=      5-min Rain = 0
KCO2 261237Z 14004KT 21/19 A3009 RMK A01 T02050191  RH  091%=      5-min Rain = 0
KCO2 261238Z 15005KT 21/19 A3009 RMK A01 T02060191  RH  091%=      5-min Rain = 0
KCO2 261239Z 15005KT 21/19 A3009 RMK A01 T02070191  RH  091%=      5-min Rain = 0
KCO2 261240Z 15004KT 21/19 A3009 RMK A01 T02070191  RH  090%=      5-min Rain = 0
KCO2 261241Z 15004KT 21/19 A3009 RMK A01 T02080192  RH  090%=      5-min Rain = 0
KCO2 261242Z 15004KT 21/19 A3009 RMK A01 T02090192  RH  090%=      5-min Rain = 0
KCO2 261243Z 15004KT 21/19 A3009 RMK A01 T02100192  RH  090%=      5-min Rain = 0
KCO2 261244Z 16004KT 21/19 A3009 RMK A01 T02100192  RH  089%=      5-min Rain = 0
KCO2 261245Z 17004KT 21/19 A3009 RMK A01 T02110192  RH  089%=      5-min Rain = 0
KCO2 261246Z 17003KT 21/19 A3009 RMK A01 T02110192  RH  089%=      5-min Rain = 0
KCO2 261247Z 18003KT 21/19 A3009 RMK A01 T02120192  RH  088%=      5-min Rain = 0
KCO2 261248Z 18002KT 21/19 A3009 RMK A01 T02130192  RH  088%=      5-min Rain = 0
KCO2 261249Z 18002KT 21/19 A3009 RMK A01 T02140193  RH  088%=      5-min Rain = 0
KCO2 261250Z 18002KT 21/19 A3009 RMK A01 T02140193  RH  088%=      5-min Rain = 0
KCO2 261251Z 18003KT 22/19 A3009 RMK A01 T02150193  RH  087%=      5-min Rain = 0
KCO2 261252Z 18002KT 22/19 A3009 RMK A01 T02160194  RH  087%=      5-min Rain = 0
KCO2 261253Z 18003KT 22/19 A3009 RMK A01 T02160194  RH  087%=      5-min Rain = 0
KCO2 261254Z 19004KT 22/20 A3009 RMK A01 T02170195  RH  087%=      5-min Rain = 0
KCO2 261255Z 18005KT 22/19 A3009 RMK A01 T02170193  RH  086%=      5-min Rain = 0
KCO2 261256Z 20005KT 22/19 A3009 RMK A01 T02180194  RH  086%=      5-min Rain = 0
KCO2 261257Z 19005KT 22/19 A3009 RMK A01 T02180193  RH  086%=      5-min Rain = 0
KCO2 261258Z 19004KT 22/19 A3009 RMK A01 T02190193  RH  085%=      5-min Rain = 0
KCO2 261259Z 18004KT 22/19 A3009 RMK A01 T02190194  RH  086%=      5-min Rain = 0
KCO2 261300Z 19005KT 22/19 A3009 RMK A01 T02200194  RH  085%=      5-min Rain = 0
KCO2 261301Z 18005KT 22/20 A3009 RMK A01 T02210195  RH  085%=      5-min Rain = 0
KCO2 261302Z 18005KT 22/20 A3009 RMK A01 T02220195  RH  085%=      5-min Rain = 0
KCO2 261303Z 18006KT 22/19 A301 RMK A01 T02220194  RH  084%=      5-min Rain = 0
KCO2 261304Z 18006KT 22/19 A301 RMK A01 T02220194  RH  084%=      5-min Rain = 0
KCO2 261305Z 18005KT 22/19 A301 RMK A01 T02220194  RH  084%=      5-min Rain = 0
KCO2 261306Z 18006KT 22/19 A301 RMK A01 T02220194  RH  084%=      5-min Rain = 0
KCO2 261307Z 18005KT 22/19 A301 RMK A01 T02220194  RH  084%=      5-min Rain = 0
KCO2 261308Z 17005KT 22/20 A301 RMK A01 T02230195  RH  084%=      5-min Rain = 0
KCO2 261309Z 18007KT 22/20 A301 RMK A01 T02240195  RH  084%=      5-min Rain = 0
KCO2 261310Z 18006KT 22/19 A301 RMK A01 T02240194  RH  083%=      5-min Rain = 0
KCO2 261311Z 18006KT 22/19 A301 RMK A01 T02240194  RH  083%=      5-min Rain = 0
KCO2 261312Z 17004KT 22/19 A301 RMK A01 T02240193  RH  083%=      5-min Rain = 0
KCO2 261313Z 17005KT 23/20 A301 RMK A01 T02250195  RH  084%=      5-min Rain = 0
KCO2 261314Z 17006KT 23/20 A301 RMK A01 T02260195  RH  083%=      5-min Rain = 0
KCO2 261315Z 16006KT 23/20 A301 RMK A01 T02270196  RH  083%=      5-min Rain = 0
KCO2 261316Z 18005KT 23/20 A301 RMK A01 T02280195  RH  082%=      5-min Rain = 0
KCO2 261317Z 17005KT 23/20 A301 RMK A01 T02290196  RH  082%=      5-min Rain = 0
KCO2 261318Z 17006KT 23/20 A301 RMK A01 T02290195  RH  081%=      5-min Rain = 0
KCO2 261319Z 17006KT 23/20 A301 RMK A01 T02290195  RH  081%=      5-min Rain = 0
KCO2 261320Z 18006KT 23/20 A301 RMK A01 T02290195  RH  081%=      5-min Rain = 0
KCO2 261321Z 18006KT 23/20 A301 RMK A01 T02290195  RH  081%=      5-min Rain = 0
KCO2 261322Z 17005KT 23/20 A301 RMK A01 T02290196  RH  081%=      5-min Rain = 0
KCO2 261323Z 17006KT 23/20 A301 RMK A01 T02310197  RH  081%=      5-min Rain = 0
KCO2 261324Z 19005KT 23/20 A301 RMK A01 T02320197  RH  081%=      5-min Rain = 0
KCO2 261325Z 17007KT 23/20 A301 RMK A01 T02320197  RH  081%=      5-min Rain = 0
KCO2 261326Z 17007KT 23/20 A3011 RMK A01 T02330195  RH  079%=      5-min Rain = 0
KCO2 261327Z 17008KT 23/20 A3011 RMK A01 T02320196  RH  080%=      5-min Rain = 0
KCO2 261328Z 18007KT 23/20 A3011 RMK A01 T02330195  RH  079%=      5-min Rain = 0
KCO2 261329Z 17007KT 23/20 A3011 RMK A01 T02320195  RH  079%=      5-min Rain = 0
KCO2 261330Z 17005KT 23/20 A3011 RMK A01 T02320197  RH  080%=      5-min Rain = 0
KCO2 261331Z 17006KT 23/20 A3011 RMK A01 T02330197  RH  080%=      5-min Rain = 0
KCO2 261332Z 18007KT 23/20 A3011 RMK A01 T02340196  RH  079%=      5-min Rain = 0
KCO2 261333Z 18008KT 23/20 A3011 RMK A01 T02340196  RH  079%=      5-min Rain = 0
KCO2 261334Z 20007KT 23/20 A3011 RMK A01 T02340197  RH  079%=      5-min Rain = 0
KCO2 261335Z 21005KT 24/20 A3011 RMK A01 T02350198  RH  079%=      5-min Rain = 0
KCO2 261336Z 17007KT 24/20 A3011 RMK A01 T02370198  RH  079%=      5-min Rain = 0
KCO2 261337Z 17007KT 24/20 A3011 RMK A01 T02380198  RH  079%=      5-min Rain = 0
KCO2 261338Z 18008KT 24/20 A3011 RMK A01 T02380199  RH  078%=      5-min Rain = 0
KCO2 261339Z 18007KT 24/20 A3011 RMK A01 T02390197  RH  077%=      5-min Rain = 0
KCO2 261340Z 17007KT 24/20 A3011 RMK A01 T02380197  RH  078%=      5-min Rain = 0
KCO2 261341Z 18008KT 24/20 A3011 RMK A01 T02380197  RH  078%=      5-min Rain = 0
KCO2 261342Z 19008KT 24/20 A3011 RMK A01 T02380197  RH  078%=      5-min Rain = 0
KCO2 261343Z 18009KT 24/20 A3011 RMK A01 T02380197  RH  078%=      5-min Rain = 0
KCO2 261344Z 18009KT 24/20 A3011 RMK A01 T02380197  RH  078%=      5-min Rain = 0
KCO2 261345Z 19010KT 24/20 A3011 RMK A01 T02380196  RH  077%=      5-min Rain = 0
KCO2 261346Z 20007KT 24/20 A3011 RMK A01 T02380196  RH  078%=      5-min Rain = 0
KCO2 261347Z 21008KT 24/20 A3011 RMK A01 T02380196  RH  077%=      5-min Rain = 0
KCO2 261348Z 21008KT 24/20 A3011 RMK A01 T02380196  RH  077%=      5-min Rain = 0
KCO2 261349Z 20007KT 24/20 A3011 RMK A01 T02380197  RH  078%=      5-min Rain = 0
KCO2 261350Z 19008KT 24/20 A3012 RMK A01 T02390198  RH  078%=      5-min Rain = 0
KCO2 261351Z 20008KT 24/20 A3012 RMK A01 T02400198  RH  077%=      5-min Rain = 0
KCO2 261352Z 18006KT 24/20 A3012 RMK A01 T02400198  RH  077%=      5-min Rain = 0
KCO2 261353Z 19008KT 24/20 A3012 RMK A01 T02420199  RH  077%=      5-min Rain = 0
KCO2 261354Z 18009KT 24/20 A3012 RMK A01 T02420198  RH  076%=      5-min Rain = 0
KCO2 261355Z 19009KT 24/20 A3012 RMK A01 T02420197  RH  076%=      5-min Rain = 0
KCO2 261356Z 18009KT 24/20 A3012 RMK A01 T02410198  RH  077%=      5-min Rain = 0
KCO2 261357Z 18010KT 24/20 A3012 RMK A01 T02420197  RH  076%=      5-min Rain = 0
KCO2 261358Z 17011KT 24/20 A3012 RMK A01 T02420196  RH  076%=      5-min Rain = 0
KCO2 261359Z 17010KT 24/20 A3012 RMK A01 T02420197  RH  076%=      5-min Rain = 0
KCO2 261400Z 18009KT 24/20 A3012 RMK A01 T02430197  RH  076%=      5-min Rain = 0
KCO2 261401Z 19010KT 24/20 A3012 RMK A01 T02430197  RH  076%=      5-min Rain = 0
KCO2 261402Z 19009KT 24/20 A3012 RMK A01 T02420197  RH  076%=      5-min Rain = 0
KCO2 261403Z 18009KT 24/20 A3012 RMK A01 T02420198  RH  076%=      5-min Rain = 0
KCO2 261404Z 18011KT 24/20 A3012 RMK A01 T02430198  RH  076%=      5-min Rain = 0
KCO2 261405Z 18009G15KT 24/20 A3012 RMK A01 T02430198  RH  076%=      5-min Rain = 0
KCO2 261406Z 18013KT 24/20 A3012 RMK A01 T02440198  RH  075%=      5-min Rain = 0
KCO2 261407Z 18011KT 24/20 A3012 RMK A01 T02440197  RH  075%=      5-min Rain = 0
KCO2 261408Z 20011KT 24/20 A3012 RMK A01 T02440197  RH  075%=      5-min Rain = 0
KCO2 261409Z 20009KT 24/20 A3012 RMK A01 T02430197  RH  075%=      5-min Rain = 0
KCO2 261410Z 20009KT 24/20 A3012 RMK A01 T02430197  RH  076%=      5-min Rain = 0
KCO2 261411Z 20009KT 24/20 A3012 RMK A01 T02430198  RH  076%=      5-min Rain = 0
KCO2 261412Z 20010KT 24/20 A3012 RMK A01 T02440198  RH  075%=      5-min Rain = 0
KCO2 261413Z 19009KT 25/20 A3012 RMK A01 T02450199  RH  075%=      5-min Rain = 0
KCO2 261414Z 18011KT 25/20 A3012 RMK A01 T02450197  RH  075%=      5-min Rain = 0
KCO2 261415Z 18011KT 25/20 A3012 RMK A01 T02450198  RH  075%=      5-min Rain = 0
KCO2 261416Z 18010KT 25/20 A3012 RMK A01 T02450198  RH  075%=      5-min Rain = 0
KCO2 261417Z 18009KT 25/20 A3012 RMK A01 T02450198  RH  075%=      5-min Rain = 0
KCO2 261418Z 19008KT 25/20 A3012 RMK A01 T02450198  RH  075%=      5-min Rain = 0
KCO2 261419Z 18008KT 25/20 A3012 RMK A01 T02460200  RH  076%=      5-min Rain = 0
KCO2 261420Z 18010KT 25/20 A3012 RMK A01 T02470200  RH  075%=      5-min Rain = 0
KCO2 261421Z 18011KT 25/20 A3012 RMK A01 T02480199  RH  074%=      5-min Rain = 0
KCO2 261422Z 19009KT 25/20 A3013 RMK A01 T02480198  RH  074%=      5-min Rain = 0
KCO2 261423Z 19008KT 25/20 A3012 RMK A01 T02480199  RH  074%=      5-min Rain = 0
KCO2 261424Z 19010KT 25/20 A3013 RMK A01 T02480200  RH  075%=      5-min Rain = 0
KCO2 261425Z 19009KT 25/20 A3013 RMK A01 T02480198  RH  073%=      5-min Rain = 0
KCO2 261426Z 19008KT 25/20 A3013 RMK A01 T02480199  RH  074%=      5-min Rain = 0
KCO2 261427Z 18006KT 25/20 A3013 RMK A01 T02480200  RH  075%=      5-min Rain = 0
KCO2 261428Z 18007KT 25/20 A3013 RMK A01 T02500202  RH  075%=      5-min Rain = 0
KCO2 261429Z 19008KT 25/20 A3013 RMK A01 T02520201  RH  074%=      5-min Rain = 0
KCO2 261430Z 18010KT 25/20 A3013 RMK A01 T02530201  RH  073%=      5-min Rain = 0
KCO2 261431Z 17009KT 25/20 A3013 RMK A01 T02530201  RH  073%=      5-min Rain = 0
KCO2 261432Z 18010KT 25/20 A3013 RMK A01 T02530199  RH  072%=      5-min Rain = 0
KCO2 261433Z 17011KT 25/20 A3013 RMK A01 T02520199  RH  072%=      5-min Rain = 0
KCO2 261434Z 18011KT 25/20 A3013 RMK A01 T02500199  RH  073%=      5-min Rain = 0
KCO2 261435Z 18010KT 25/20 A3013 RMK A01 T02500200  RH  074%=      5-min Rain = 0
KCO2 261436Z 18008KT 25/20 A3013 RMK A01 T02500199  RH  073%=      5-min Rain = 0
KCO2 261437Z 18011KT 25/20 A3013 RMK A01 T02520200  RH  073%=      5-min Rain = 0
KCO2 261438Z 19009KT 25/20 A3013 RMK A01 T02510197  RH  072%=      5-min Rain = 0
KCO2 261439Z 19008KT 25/20 A3013 RMK A01 T02500200  RH  074%=      5-min Rain = 0
KCO2 261440Z 17010KT 25/20 A3013 RMK A01 T02510199  RH  073%=      5-min Rain = 0
KCO2 261441Z 18011KT 25/20 A3013 RMK A01 T02510199  RH  073%=      5-min Rain = 0
KCO2 261442Z 18009G14KT 25/20 A3013 RMK A01 T02520199  RH  073%=      5-min Rain = 0
KCO2 261443Z 19011KT 25/20 A3013 RMK A01 T02530200  RH  072%=      5-min Rain = 0
KCO2 261444Z 20010KT 25/20 A3013 RMK A01 T02530199  RH  072%=      5-min Rain = 0
KCO2 261445Z 19009KT 25/20 A3013 RMK A01 T02530199  RH  072%=      5-min Rain = 0
KCO2 261446Z 20007KT 25/20 A3013 RMK A01 T02530199  RH  072%=      5-min Rain = 0
KCO2 261447Z 18009KT 25/20 A3013 RMK A01 T02540200  RH  072%=      5-min Rain = 0
KCO2 261448Z 19010KT 26/20 A3013 RMK A01 T02550199  RH  071%=      5-min Rain = 0
KCO2 261449Z 19010KT 25/20 A3013 RMK A01 T02540199  RH  071%=      5-min Rain = 0
KCO2 261450Z 19010G15KT 25/20 A3013 RMK A01 T02530200  RH  072%=      5-min Rain = 0
KCO2 261451Z 18009KT 25/20 A3013 RMK A01 T02540199  RH  072%=      5-min Rain = 0
KCO2 261452Z 18007KT 25/20 A3013 RMK A01 T02540201  RH  072%=      5-min Rain = 0
KCO2 261453Z 19009KT 26/20 A3013 RMK A01 T02560203  RH  072%=      5-min Rain = 0
KCO2 261454Z 19007KT 26/20 A3013 RMK A01 T02580202  RH  071%=      5-min Rain = 0
KCO2 261455Z 18009KT 26/20 A3013 RMK A01 T02600202  RH  070%=      5-min Rain = 0
KCO2 261456Z 18008KT 26/20 A3013 RMK A01 T02590199  RH  070%=      5-min Rain = 0
KCO2 261457Z 19008KT 26/20 A3013 RMK A01 T02580202  RH  071%=      5-min Rain = 0
KCO2 261458Z 19009KT 26/20 A3013 RMK A01 T02590200  RH  070%=      5-min Rain = 0
KCO2 261459Z 17008KT 26/20 A3013 RMK A01 T02590201  RH  070%=      5-min Rain = 0
KCO2 261500Z 19007KT 26/21 A3013 RMK A01 T02610205  RH  071%=      5-min Rain = 0
KCO2 261501Z 18007KT 26/20 A3013 RMK A01 T02630200  RH  069%=      5-min Rain = 0
KCO2 261502Z 18009KT 26/20 A3013 RMK A01 T02620202  RH  069%=      5-min Rain = 0
KCO2 261503Z 18009KT 26/20 A3013 RMK A01 T02620200  RH  068%=      5-min Rain = 0
KCO2 261504Z 18009KT 26/20 A3013 RMK A01 T02620199  RH  068%=      5-min Rain = 0
KCO2 261505Z 18009KT 26/20 A3013 RMK A01 T02620199  RH  068%=      5-min Rain = 0
KCO2 261506Z 19010KT 26/20 A3013 RMK A01 T02610199  RH  069%=      5-min Rain = 0
KCO2 261507Z 19009KT 26/20 A3013 RMK A01 T02610200  RH  069%=      5-min Rain = 0
KCO2 261508Z 19009KT 26/20 A3013 RMK A01 T02600200  RH  069%=      5-min Rain = 0
KCO2 261509Z 17009KT 26/20 A3013 RMK A01 T02610202  RH  070%=      5-min Rain = 0
KCO2 261510Z 16009KT 26/20 A3013 RMK A01 T02620201  RH  069%=      5-min Rain = 0
KCO2 261511Z 17011KT 26/20 A3013 RMK A01 T02640202  RH  069%=      5-min Rain = 0
KCO2 261512Z 17008KT 26/20 A3013 RMK A01 T02640202  RH  069%=      5-min Rain = 0
KCO2 261513Z 17009KT 27/20 A3013 RMK A01 T02650202  RH  068%=      5-min Rain = 0
KCO2 261514Z 16010KT 27/20 A3013 RMK A01 T02650201  RH  068%=      5-min Rain = 0
KCO2 261515Z 18009KT 27/20 A3013 RMK A01 T02650202  RH  069%=      5-min Rain = 0
KCO2 261516Z 18009KT 26/20 A3013 RMK A01 T02640202  RH  069%=      5-min Rain = 0
KCO2 261517Z 19010KT 27/20 A3013 RMK A01 T02650203  RH  069%=      5-min Rain = 0
KCO2 261518Z 16010KT 27/20 A3013 RMK A01 T02650203  RH  069%=      5-min Rain = 0
KCO2 261519Z 17011KT 27/21 A3013 RMK A01 T02660205  RH  069%=      5-min Rain = 0
KCO2 261520Z 18010KT 27/20 A3013 RMK A01 T02680203  RH  067%=      5-min Rain = 0
KCO2 261521Z 17009KT 27/20 A3013 RMK A01 T02660202  RH  068%=      5-min Rain = 0
KCO2 261522Z 17009KT 27/20 A3013 RMK A01 T02650200  RH  067%=      5-min Rain = 0
KCO2 261523Z 17009KT 27/20 A3013 RMK A01 T02650201  RH  068%=      5-min Rain = 0
KCO2 261524Z 18010KT 27/20 A3013 RMK A01 T02660202  RH  068%=      5-min Rain = 0
KCO2 261525Z 18011KT 27/20 A3013 RMK A01 T02680201  RH  067%=      5-min Rain = 0
KCO2 261526Z 17011KT 27/20 A3013 RMK A01 T02680201  RH  067%=      5-min Rain = 0
KCO2 261527Z 19009KT 27/20 A3013 RMK A01 T02670202  RH  068%=      5-min Rain = 0
KCO2 261528Z 19008KT 27/20 A3013 RMK A01 T02660201  RH  067%=      5-min Rain = 0
KCO2 261529Z 17010KT 27/20 A3013 RMK A01 T02660203  RH  068%=      5-min Rain = 0
KCO2 261530Z 17011KT 27/20 A3013 RMK A01 T02680202  RH  067%=      5-min Rain = 0
KCO2 261531Z 16008KT 27/20 A3013 RMK A01 T02690201  RH  066%=      5-min Rain = 0
KCO2 261532Z 17008KT 27/20 A3013 RMK A01 T02690202  RH  067%=      5-min Rain = 0
KCO2 261533Z 17008KT 27/21 A3013 RMK A01 T02700205  RH  068%=      5-min Rain = 0
KCO2 261534Z 18007KT 27/20 A3013 RMK A01 T02710202  RH  066%=      5-min Rain = 0
KCO2 261535Z 17005KT 27/20 A3013 RMK A01 T02700204  RH  067%=      5-min Rain = 0
KCO2 261536Z 16004KT 27/21 A3013 RMK A01 T02700206  RH  068%=      5-min Rain = 0
KCO2 261537Z 17007KT 27/20 A3013 RMK A01 T02730204  RH  066%=      5-min Rain = 0
KCO2 261538Z 20009KT 27/21 A3013 RMK A01 T02740206  RH  066%=      5-min Rain = 0
KCO2 261539Z 20008KT 27/21 A3013 RMK A01 T02740205  RH  066%=      5-min Rain = 0
KCO2 261540Z 19009KT 27/20 A3013 RMK A01 T02740204  RH  066%=      5-min Rain = 0
KCO2 261541Z 18009KT 27/21 A3013 RMK A01 T02740208  RH  067%=      5-min Rain = 0
KCO2 261542Z 19011KT 28/21 A3013 RMK A01 T02750205  RH  066%=      5-min Rain = 0
KCO2 261543Z 20009KT 27/21 A3013 RMK A01 T02730205  RH  066%=      5-min Rain = 0
KCO2 261544Z 19009KT 27/21 A3013 RMK A01 T02730205  RH  066%=      5-min Rain = 0
KCO2 261545Z 19010KT 27/21 A3013 RMK A01 T02740206  RH  067%=      5-min Rain = 0
KCO2 261546Z 19007KT 27/20 A3013 RMK A01 T02730204  RH  066%=      5-min Rain = 0
KCO2 261547Z 17009KT 27/21 A3013 RMK A01 T02730205  RH  067%=      5-min Rain = 0
KCO2 261548Z 17007KT 27/20 A3013 RMK A01 T02730204  RH  066%=      5-min Rain = 0
KCO2 261549Z 16007KT 27/21 A3013 RMK A01 T02710205  RH  067%=      5-min Rain = 0
KCO2 261550Z 15009KT 27/21 A3013 RMK A01 T02710205  RH  067%=      5-min Rain = 0
KCO2 261551Z 15009KT 27/21 A3013 RMK A01 T02740205  RH  066%=      5-min Rain = 0
KCO2 261552Z 16011KT 28/21 A3013 RMK A01 T02750205  RH  066%=      5-min Rain = 0
KCO2 261553Z 17008KT 28/21 A3013 RMK A01 T02750206  RH  066%=      5-min Rain = 0
KCO2 261554Z 16007KT 28/21 A3013 RMK A01 T02770205  RH  065%=      5-min Rain = 0
KCO2 261555Z 17009KT 28/21 A3013 RMK A01 T02760205  RH  065%=      5-min Rain = 0
KCO2 261556Z 18010KT 28/21 A3013 RMK A01 T02750207  RH  066%=      5-min Rain = 0
KCO2 261557Z 18010KT 27/21 A3013 RMK A01 T02740207  RH  067%=      5-min Rain = 0
KCO2 261558Z 19009KT 28/21 A3013 RMK A01 T02750206  RH  066%=      5-min Rain = 0
KCO2 261559Z 18008KT 28/21 A3013 RMK A01 T02760207  RH  066%=      5-min Rain = 0
KCO2 261600Z 19011KT 28/21 A3013 RMK A01 T02770209  RH  066%=      5-min Rain = 0
KCO2 261601Z 18009KT 28/21 A3013 RMK A01 T02790205  RH  064%=      5-min Rain = 0
KCO2 261602Z 16009G14KT 28/21 A3013 RMK A01 T02800208  RH  065%=      5-min Rain = 0
KCO2 261603Z 16011KT 28/21 A3013 RMK A01 T02810206  RH  064%=      5-min Rain = 0
KCO2 261604Z 16010KT 28/21 A3013 RMK A01 T02800205  RH  064%=      5-min Rain = 0
KCO2 261605Z 18009KT 28/21 A3013 RMK A01 T02780206  RH  065%=      5-min Rain = 0
KCO2 261606Z 16010KT 28/21 A3013 RMK A01 T02780207  RH  065%=      5-min Rain = 0
KCO2 261607Z 16010KT 28/21 A3013 RMK A01 T02790205  RH  064%=      5-min Rain = 0
KCO2 261608Z 16014KT 28/20 A3013 RMK A01 T02790204  RH  063%=      5-min Rain = 0
KCO2 261609Z 17010KT 28/21 A3013 RMK A01 T02790205  RH  064%=      5-min Rain = 0
KCO2 261610Z 16010KT 28/21 A3013 RMK A01 T02790206  RH  064%=      5-min Rain = 0
KCO2 261611Z 16012KT 28/20 A3013 RMK A01 T02800203  RH  063%=      5-min Rain = 0
KCO2 261612Z 16012KT 28/21 A3013 RMK A01 T02800205  RH  064%=      5-min Rain = 0
KCO2 261613Z 16013KT 28/20 A3013 RMK A01 T02800203  RH  063%=      5-min Rain = 0
KCO2 261614Z 16010KT 28/21 A3013 RMK A01 T02800205  RH  064%=      5-min Rain = 0
KCO2 261615Z 14011KT 28/20 A3013 RMK A01 T02790203  RH  063%=      5-min Rain = 0
KCO2 261616Z 14011KT 28/20 A3014 RMK A01 T02780202  RH  063%=      5-min Rain = 0
KCO2 261617Z 14010KT 28/20 A3014 RMK A01 T02770204  RH  065%=      5-min Rain = 0
KCO2 261618Z 14011KT 28/20 A3014 RMK A01 T02780203  RH  064%=      5-min Rain = 0
KCO2 261619Z 15013KT 28/20 A3014 RMK A01 T02800203  RH  063%=      5-min Rain = 0
KCO2 261620Z 16013KT 28/20 A3014 RMK A01 T02800203  RH  063%=      5-min Rain = 0
KCO2 261621Z 16011KT 28/20 A3014 RMK A01 T02790202  RH  063%=      5-min Rain = 0
KCO2 261622Z 17010KT 28/21 A3014 RMK A01 T02780205  RH  064%=      5-min Rain = 0
KCO2 261623Z 17012KT 28/20 A3014 RMK A01 T02780202  RH  064%=      5-min Rain = 0
KCO2 261624Z 17011KT 28/20 A3014 RMK A01 T02770202  RH  064%=      5-min Rain = 0
KCO2 261625Z 18011KT 28/20 A3014 RMK A01 T02760203  RH  064%=      5-min Rain = 0
KCO2 261626Z 17011G17KT 28/20 A3014 RMK A01 T02770203  RH  064%=      5-min Rain = 0
KCO2 261627Z 15012G17KT 28/20 A3014 RMK A01 T02770203  RH  064%=      5-min Rain = 0
KCO2 261628Z 13014KT 28/20 A3014 RMK A01 T02770203  RH  064%=      5-min Rain = 0
KCO2 261629Z 13013KT 28/20 A3014 RMK A01 T02760201  RH  063%=      5-min Rain = 0
KCO2 261630Z 15013KT 28/20 A3014 RMK A01 T02750203  RH  065%=      5-min Rain = 0
KCO2 261631Z 16015KT 28/20 A3014 RMK A01 T02760201  RH  064%=      5-min Rain = 0
KCO2 261632Z 16013KT 28/20 A3014 RMK A01 T02750200  RH  064%=      5-min Rain = 0
KCO2 261633Z 15014KT 27/20 A3014 RMK A01 T02740201  RH  064%=      5-min Rain = 0
KCO2 261634Z 15013KT 27/20 A3014 RMK A01 T02740202  RH  065%=      5-min Rain = 0
KCO2 261635Z 16015KT 28/20 A3014 RMK A01 T02750201  RH  064%=      5-min Rain = 0
KCO2 261636Z 15012KT 28/20 A3014 RMK A01 T02760201  RH  064%=      5-min Rain = 0
KCO2 261637Z 15011KT 28/20 A3014 RMK A01 T02760202  RH  064%=      5-min Rain = 0
KCO2 261638Z 15012KT 28/20 A3014 RMK A01 T02770202  RH  064%=      5-min Rain = 0
KCO2 261639Z 14013KT 28/20 A3014 RMK A01 T02780201  RH  063%=      5-min Rain = 0
KCO2 261640Z 17012KT 28/20 A3014 RMK A01 T02770202  RH  064%=      5-min Rain = 0
KCO2 261641Z 17013KT 28/20 A3014 RMK A01 T02770202  RH  064%=      5-min Rain = 0
KCO2 261642Z 16014KT 28/20 A3014 RMK A01 T02750201  RH  064%=      5-min Rain = 0
KCO2 261643Z 15013KT 27/20 A3014 RMK A01 T02740201  RH  064%=      5-min Rain = 0
KCO2 261644Z 14014KT 28/20 A3014 RMK A01 T02750201  RH  064%=      5-min Rain = 0
KCO2 261645Z 16013KT 28/20 A3014 RMK A01 T02770203  RH  064%=      5-min Rain = 0
KCO2 261646Z 16010KT 28/20 A3014 RMK A01 T02780203  RH  064%=      5-min Rain = 0
KCO2 261647Z 16011KT 28/20 A3015 RMK A01 T02800203  RH  063%=      5-min Rain = 0
KCO2 261648Z 16013KT 28/20 A3014 RMK A01 T02810203  RH  063%=      5-min Rain = 0
KCO2 261649Z 15014KT 28/20 A3015 RMK A01 T02800199  RH  062%=      5-min Rain = 0
KCO2 261650Z 14011KT 28/20 A3015 RMK A01 T02750200  RH  064%=      5-min Rain = 0
KCO2 261651Z 14013KT 28/20 A3015 RMK A01 T02750202  RH  064%=      5-min Rain = 0
KCO2 261652Z 14015KT 28/20 A3015 RMK A01 T02750199  RH  063%=      5-min Rain = 0
KCO2 261653Z 15014KT 27/20 A3015 RMK A01 T02730200  RH  064%=      5-min Rain = 0
KCO2 261654Z 15012KT 27/20 A3015 RMK A01 T02720201  RH  065%=      5-min Rain = 0
KCO2 261655Z 15013KT 27/20 A3015 RMK A01 T02740203  RH  065%=      5-min Rain = 0
KCO2 261656Z 16013KT 28/20 A3015 RMK A01 T02770202  RH  064%=      5-min Rain = 0
KCO2 261657Z 15014KT 28/20 A3015 RMK A01 T02770201  RH  063%=      5-min Rain = 0
KCO2 261658Z 15013KT 28/20 A3015 RMK A01 T02760200  RH  063%=      5-min Rain = 0
KCO2 261659Z 14013KT 28/20 A3015 RMK A01 T02750200  RH  064%=      5-min Rain = 0
KCO2 261700Z 15014KT 28/20 A3015 RMK A01 T02750200  RH  064%=      5-min Rain = 0
KCO2 261701Z 14013KT 27/20 A3015 RMK A01 T02740199  RH  063%=      5-min Rain = 0
KCO2 261702Z 15014KT 27/20 A3015 RMK A01 T02730200  RH  064%=      5-min Rain = 0
KCO2 261703Z 15015KT 27/20 A3015 RMK A01 T02730199  RH  064%=      5-min Rain = 0
KCO2 261704Z 15012G17KT 27/20 A3015 RMK A01 T02730199  RH  064%=      5-min Rain = 0
KCO2 261705Z 15011KT 27/20 A3015 RMK A01 T02740202  RH  065%=      5-min Rain = 0
KCO2 261706Z 16010KT 28/20 A3015 RMK A01 T02770204  RH  065%=      5-min Rain = 0
KCO2 261707Z 16015KT 28/20 A3015 RMK A01 T02780201  RH  063%=      5-min Rain = 0
KCO2 261708Z 15016KT 28/20 A3015 RMK A01 T02760200  RH  063%=      5-min Rain = 0
KCO2 261709Z 15016KT 28/20 A3015 RMK A01 T02750200  RH  063%=      5-min Rain = 0
KCO2 261710Z 16015KT 27/20 A3015 RMK A01 T02740199  RH  064%=      5-min Rain = 0
KCO2 261711Z 15013KT 27/20 A3015 RMK A01 T02730200  RH  064%=      5-min Rain = 0
KCO2 261712Z 15012KT 27/20 A3015 RMK A01 T02730201  RH  065%=      5-min Rain = 0
KCO2 261713Z 16016KT 27/20 A3015 RMK A01 T02730200  RH  065%=      5-min Rain = 0
KCO2 261714Z 15014KT 27/20 A3015 RMK A01 T02730199  RH  064%=      5-min Rain = 0
KCO2 261715Z 14014KT 27/20 A3015 RMK A01 T02730201  RH  064%=      5-min Rain = 0
KCO2 261716Z 15013KT 27/20 A3015 RMK A01 T02740200  RH  064%=      5-min Rain = 0
KCO2 261717Z 16015G20KT 28/20 A3015 RMK A01 T02750200  RH  064%=      5-min Rain = 0
KCO2 261718Z 15014KT 28/20 A3015 RMK A01 T02750200  RH  064%=      5-min Rain = 0
KCO2 261719Z 15013KT 28/20 A3015 RMK A01 T02750199  RH  063%=      5-min Rain = 0
KCO2 261720Z 17015KT 27/20 A3015 RMK A01 T02740201  RH  064%=      5-min Rain = 0
KCO2 261721Z 17012KT 28/20 A3015 RMK A01 T02750200  RH  064%=      5-min Rain = 0
KCO2 261722Z 16016KT 28/20 A3015 RMK A01 T02760203  RH  064%=      5-min Rain = 0
KCO2 261723Z 17016KT 28/20 A3015 RMK A01 T02770199  RH  063%=      5-min Rain = 0
KCO2 261724Z 16014KT 27/20 A3015 RMK A01 T02740199  RH  064%=      5-min Rain = 0
KCO2 261725Z 17015KT 27/20 A3015 RMK A01 T02730201  RH  065%=      5-min Rain = 0
KCO2 261726Z 16013KT 27/20 A3015 RMK A01 T02740199  RH  064%=      5-min Rain = 0
KCO2 261727Z 16013G18KT 27/20 A3015 RMK A01 T02740201  RH  064%=      5-min Rain = 0
KCO2 261728Z 16011KT 27/20 A3016 RMK A01 T02740202  RH  065%=      5-min Rain = 0
KCO2 261729Z 16010KT 27/20 A3016 RMK A01 T02740200  RH  064%=      5-min Rain = 0
KCO2 261730Z 15011G17KT 27/20 A3016 RMK A01 T02720202  RH  065%=      5-min Rain = 0
KCO2 261731Z 15018KT 27/20 A3016 RMK A01 T02720199  RH  064%=      5-min Rain = 0
KCO2 261732Z 14016KT 27/20 A3016 RMK A01 T02680197  RH  065%=      5-min Rain = 0
KCO2 261733Z 15013KT 27/20 A3016 RMK A01 T02650197  RH  066%=      5-min Rain = 0
KCO2 261734Z 14015KT 27/20 A3016 RMK A01 T02670200  RH  067%=      5-min Rain = 0
KCO2 261735Z 14014KT 27/20 A3016 RMK A01 T02720199  RH  064%=      5-min Rain = 0
KCO2 261736Z 15013KT 27/20 A3016 RMK A01 T02740200  RH  064%=      5-min Rain = 0
KCO2 261737Z 15013KT 28/20 A3016 RMK A01 T02750200  RH  064%=      5-min Rain = 0
KCO2 261738Z 15017G22KT 28/20 A3016 RMK A01 T02750198  RH  063%=      5-min Rain = 0
KCO2 261739Z 17011G16KT 27/20 A3016 RMK A01 T02710196  RH  063%=      5-min Rain = 0
KCO2 261740Z 15012G20KT 27/20 A3016 RMK A01 T02680197  RH  065%=      5-min Rain = 0
KCO2 261741Z 15016KT 27/20 A3016 RMK A01 T02670197  RH  065%=      5-min Rain = 0
KCO2 261742Z 15015KT 27/20 A3016 RMK A01 T02670196  RH  065%=      5-min Rain = 0
KCO2 261743Z 15013KT 27/20 A3016 RMK A01 T02710201  RH  066%=      5-min Rain = 0
KCO2 261744Z 15014KT 28/20 A3016 RMK A01 T02770200  RH  063%=      5-min Rain = 0
KCO2 261745Z 16012KT 28/20 A3016 RMK A01 T02770199  RH  063%=      5-min Rain = 0
KCO2 261746Z 15011KT 27/20 A3016 RMK A01 T02740198  RH  063%=      5-min Rain = 0
KCO2 261747Z 17012G17KT 27/20 A3016 RMK A01 T02700197  RH  064%=      5-min Rain = 0
KCO2 261748Z 16016KT 27/20 A3016 RMK A01 T02680198  RH  065%=      5-min Rain = 0
KCO2 261749Z 14012KT 27/20 A3016 RMK A01 T02680197  RH  065%=      5-min Rain = 0
KCO2 261750Z 14012KT 27/20 A3016 RMK A01 T02690200  RH  066%=      5-min Rain = 0
KCO2 261751Z 14010KT 27/20 A3016 RMK A01 T02730201  RH  065%=      5-min Rain = 0
KCO2 261752Z 16012KT 28/20 A3016 RMK A01 T02780202  RH  063%=      5-min Rain = 0
KCO2 261753Z 17012KT 28/20 A3016 RMK A01 T02780201  RH  063%=      5-min Rain = 0
KCO2 261754Z 15013KT 28/20 A3016 RMK A01 T02780202  RH  063%=      5-min Rain = 0
KCO2 261755Z 15015KT 28/20 A3016 RMK A01 T02810201  RH  062%=      5-min Rain = 0
KCO2 261756Z 15015KT 28/20 A3016 RMK A01 T02800201  RH  062%=      5-min Rain = 0
KCO2 261757Z 14014KT 28/20 A3016 RMK A01 T02780199  RH  062%=      5-min Rain = 0
KCO2 261758Z 15017KT 28/20 A3016 RMK A01 T02750198  RH  063%=      5-min Rain = 0
KCO2 261759Z 17015KT 27/20 A3016 RMK A01 T02720198  RH  064%=      5-min Rain = 0
KCO2 261800Z 17014KT 27/20 A3015 RMK A01 T02730200  RH  064%=      5-min Rain = 0
KCO2 261801Z 17015KT 28/20 A3015 RMK A01 T02760199  RH  063%=      5-min Rain = 0
KCO2 261802Z 17016KT 28/20 A3015 RMK A01 T02750199  RH  063%=      5-min Rain = 0
KCO2 261803Z 15014KT 27/20 A3015 RMK A01 T02720198  RH  064%=      5-min Rain = 0
KCO2 261804Z 15014G19KT 27/20 A3015 RMK A01 T02720200  RH  065%=      5-min Rain = 0
KCO2 261805Z 15012KT 27/20 A3015 RMK A01 T02730199  RH  064%=      5-min Rain = 0
KCO2 261806Z 16010KT 27/20 A3015 RMK A01 T02730198  RH  063%=      5-min Rain = 0
KCO2 261807Z 15008KT 27/20 A3015 RMK A01 T02710198  RH  064%=      5-min Rain = 0
KCO2 261808Z 15016KT 27/20 A3015 RMK A01 T02720200  RH  065%=      5-min Rain = 0
KCO2 261809Z 16014KT 27/20 A3015 RMK A01 T02730200  RH  064%=      5-min Rain = 0
KCO2 261810Z 16013KT 27/20 A3015 RMK A01 T02740200  RH  064%=      5-min Rain = 0
KCO2 261811Z 15013KT 27/20 A3015 RMK A01 T02740199  RH  064%=      5-min Rain = 0
KCO2 261812Z 15010KT 27/20 A3015 RMK A01 T02730199  RH  064%=      5-min Rain = 0
KCO2 261813Z 15011G17KT 27/20 A3015 RMK A01 T02720201  RH  065%=      5-min Rain = 0
KCO2 261814Z 17013KT 27/20 A3015 RMK A01 T02720200  RH  065%=      5-min Rain = 0
KCO2 261815Z 17012KT 27/20 A3015 RMK A01 T02740200  RH  064%=      5-min Rain = 0
KCO2 261816Z 17013G19KT 28/20 A3015 RMK A01 T02780201  RH  063%=      5-min Rain = 0
KCO2 261817Z 18015KT 28/20 A3014 RMK A01 T02790200  RH  062%=      5-min Rain = 0
KCO2 261818Z 16012KT 28/20 A3014 RMK A01 T02780200  RH  063%=      5-min Rain = 0
KCO2 261819Z 15010KT 28/20 A3014 RMK A01 T02780203  RH  063%=      5-min Rain = 0
KCO2 261820Z 17012KT 28/20 A3014 RMK A01 T02800200  RH  062%=      5-min Rain = 0
KCO2 261821Z 17014KT 28/20 A3014 RMK A01 T02800200  RH  062%=      5-min Rain = 0
KCO2 261822Z 15013G18KT 28/20 A3014 RMK A01 T02800199  RH  062%=      5-min Rain = 0
KCO2 261823Z 15012KT 28/20 A3014 RMK A01 T02780199  RH  062%=      5-min Rain = 0
KCO2 261824Z 16011KT 28/20 A3014 RMK A01 T02780204  RH  064%=      5-min Rain = 0
KCO2 261825Z 17012KT 28/20 A3014 RMK A01 T02830204  RH  062%=      5-min Rain = 0
KCO2 261826Z 16011KT 29/20 A3014 RMK A01 T02850201  RH  060%=      5-min Rain = 0
KCO2 261827Z 16010KT 28/20 A3014 RMK A01 T02830201  RH  061%=      5-min Rain = 0
KCO2 261828Z 17011KT 28/20 A3014 RMK A01 T02820200  RH  061%=      5-min Rain = 0
KCO2 261829Z 19013KT 28/20 A3014 RMK A01 T02810199  RH  061%=      5-min Rain = 0
KCO2 261830Z 19015KT 28/20 A3014 RMK A01 T02820198  RH  061%=      5-min Rain = 0
KCO2 261831Z 18010KT 28/20 A3014 RMK A01 T02810197  RH  060%=      5-min Rain = 0
KCO2 261832Z 18010KT 28/20 A3014 RMK A01 T02800198  RH  061%=      5-min Rain = 0
KCO2 261833Z 16012KT 28/20 A3014 RMK A01 T02810200  RH  061%=      5-min Rain = 0
KCO2 261834Z 16012G17KT 28/20 A3014 RMK A01 T02830197  RH  060%=      5-min Rain = 0
KCO2 261835Z 16013G18KT 28/20 A3014 RMK A01 T02830198  RH  060%=      5-min Rain = 0
KCO2 261836Z 17009G15KT 28/20 A3014 RMK A01 T02840198  RH  060%=      5-min Rain = 0
KCO2 261837Z 18012KT 28/20 A3014 RMK A01 T02840200  RH  060%=      5-min Rain = 0
KCO2 261838Z 18013KT 29/20 A3014 RMK A01 T02860199  RH  060%=      5-min Rain = 0
KCO2 261839Z 19011G16KT 29/20 A3014 RMK A01 T02870200  RH  059%=      5-min Rain = 0
KCO2 261840Z 16009KT 29/20 A3014 RMK A01 T02870199  RH  059%=      5-min Rain = 0
KCO2 261841Z 18012KT 29/20 A3013 RMK A01 T02870201  RH  060%=      5-min Rain = 0
KCO2 261842Z 19017KT 29/20 A3013 RMK A01 T02880197  RH  058%=      5-min Rain = 0
KCO2 261843Z 19013KT 29/20 A3013 RMK A01 T02850197  RH  059%=      5-min Rain = 0
KCO2 261844Z 18013KT 28/20 A3013 RMK A01 T02840197  RH  059%=      5-min Rain = 0
KCO2 261845Z 18014KT 28/20 A3013 RMK A01 T02830198  RH  060%=      5-min Rain = 0
KCO2 261846Z 18014KT 28/20 A3013 RMK A01 T02830197  RH  060%=      5-min Rain = 0
KCO2 261847Z 18014KT 28/20 A3013 RMK A01 T02830198  RH  060%=      5-min Rain = 0
KCO2 261848Z 17013KT 28/20 A3013 RMK A01 T02840197  RH  059%=      5-min Rain = 0
KCO2 261849Z 17011KT 29/20 A3013 RMK A01 T02850199  RH  059%=      5-min Rain = 0
KCO2 261850Z 16013KT 29/20 A3013 RMK A01 T02880200  RH  059%=      5-min Rain = 0
KCO2 261851Z 17011KT 29/20 A3013 RMK A01 T02900200  RH  058%=      5-min Rain = 0
KCO2 261852Z 16009KT 29/20 A3013 RMK A01 T02910201  RH  058%=      5-min Rain = 0
KCO2 261853Z 16010KT 29/20 A3013 RMK A01 T02910200  RH  058%=      5-min Rain = 0
KCO2 261854Z 16012G17KT 29/20 A3013 RMK A01 T02900203  RH  059%=      5-min Rain = 0
KCO2 261855Z 15010KT 29/20 A3013 RMK A01 T02910200  RH  058%=      5-min Rain = 0
KCO2 261856Z 16009KT 29/20 A3013 RMK A01 T02920203  RH  059%=      5-min Rain = 0
KCO2 261857Z 16010KT 29/20 A3013 RMK A01 T02930203  RH  058%=      5-min Rain = 0
KCO2 261858Z 18010KT 29/20 A3013 RMK A01 T02940201  RH  057%=      5-min Rain = 0
KCO2 261859Z 19010G15KT 30/20 A3013 RMK A01 T02950200  RH  057%=      5-min Rain = 0
KCO2 261900Z 17009KT 29/20 A3013 RMK A01 T02930202  RH  058%=      5-min Rain = 0
KCO2 261901Z 15009KT 29/20 A3013 RMK A01 T02910199  RH  058%=      5-min Rain = 0
KCO2 261902Z 17011KT 29/20 A3013 RMK A01 T02890199  RH  058%=      5-min Rain = 0
KCO2 261903Z 17012KT 29/20 A3013 RMK A01 T02860198  RH  059%=      5-min Rain = 0
KCO2 261904Z 17012KT 29/20 A3013 RMK A01 T02850198  RH  059%=      5-min Rain = 0
KCO2 261905Z 17014KT 29/20 A3013 RMK A01 T02880201  RH  059%=      5-min Rain = 0
KCO2 261906Z 17013KT 29/20 A3013 RMK A01 T02900199  RH  058%=      5-min Rain = 0
KCO2 261907Z 18011KT 29/20 A3013 RMK A01 T02900199  RH  058%=      5-min Rain = 0
KCO2 261908Z 18009KT 29/20 A3013 RMK A01 T02910201  RH  058%=      5-min Rain = 0
KCO2 261909Z 17012KT 29/20 A3013 RMK A01 T02940199  RH  057%=      5-min Rain = 0
KCO2 261910Z 18013KT 30/20 A3013 RMK A01 T02960200  RH  056%=      5-min Rain = 0
KCO2 261911Z 18014KT 30/20 A3013 RMK A01 T02970197  RH  055%=      5-min Rain = 0
KCO2 261912Z 18012KT 29/20 A3013 RMK A01 T02940195  RH  055%=      5-min Rain = 0
KCO2 261913Z 18015KT 29/20 A3013 RMK A01 T02920195  RH  056%=      5-min Rain = 0
KCO2 261914Z 20013KT 29/20 A3013 RMK A01 T02920196  RH  056%=      5-min Rain = 0
KCO2 261915Z 20012KT 29/20 A3012 RMK A01 T02920196  RH  056%=      5-min Rain = 0
KCO2 261916Z 19011KT 29/20 A3012 RMK A01 T02910197  RH  057%=      5-min Rain = 0
KCO2 261917Z 18009KT 29/20 A3012 RMK A01 T02920201  RH  058%=      5-min Rain = 0
KCO2 261918Z 16008KT 30/20 A3012 RMK A01 T02960201  RH  057%=      5-min Rain = 0
KCO2 261919Z 16010KT 30/20 A3012 RMK A01 T02980200  RH  056%=      5-min Rain = 0
KCO2 261920Z 16010KT 30/20 A3012 RMK A01 T02980199  RH  055%=      5-min Rain = 0
KCO2 261921Z 15010KT 30/20 A3012 RMK A01 T02980201  RH  056%=      5-min Rain = 0
KCO2 261922Z 16009KT 30/20 A3012 RMK A01 T02980198  RH  055%=      5-min Rain = 0
KCO2 261923Z 16013KT 30/20 A3012 RMK A01 T02990198  RH  055%=      5-min Rain = 0
KCO2 261924Z 16010KT 30/20 A3012 RMK A01 T03000195  RH  053%=      5-min Rain = 0
KCO2 261925Z 16010KT 30/20 A3012 RMK A01 T03020197  RH  053%=      5-min Rain = 0
KCO2 261926Z 17012KT 30/20 A3012 RMK A01 T03030198  RH  054%=      5-min Rain = 0
KCO2 261927Z 18012KT 30/19 A3012 RMK A01 T03030194  RH  052%=      5-min Rain = 0
KCO2 261928Z 19009G15KT 30/19 A3012 RMK A01 T02980193  RH  053%=      5-min Rain = 0
KCO2 261929Z 19012KT 30/19 A3012 RMK A01 T02970194  RH  054%=      5-min Rain = 0
KCO2 261930Z 18009KT 30/20 A3012 RMK A01 T02980198  RH  055%=      5-min Rain = 0
KCO2 261931Z 17008KT 30/20 A3012 RMK A01 T03020198  RH  054%=      5-min Rain = 0
KCO2 261932Z 17009KT 30/19 A3012 RMK A01 T03000194  RH  053%=      5-min Rain = 0
KCO2 261933Z 17012KT 30/19 A3012 RMK A01 T02990194  RH  053%=      5-min Rain = 0
KCO2 261934Z 17011KT 30/20 A3012 RMK A01 T02990195  RH  054%=      5-min Rain = 0
KCO2 261935Z 17010KT 30/20 A3012 RMK A01 T03010197  RH  054%=      5-min Rain = 0
KCO2 261936Z 17011KT 30/20 A3012 RMK A01 T03030196  RH  053%=      5-min Rain = 0
KCO2 261937Z 18012KT 30/20 A3012 RMK A01 T03020196  RH  053%=      5-min Rain = 0
KCO2 261938Z 19012KT 30/19 A3012 RMK A01 T03000194  RH  053%=      5-min Rain = 0
KCO2 261939Z 20009KT 30/19 A3011 RMK A01 T02980191  RH  053%=      5-min Rain = 0
KCO2 261940Z 18013KT 30/20 A3012 RMK A01 T02990198  RH  055%=      5-min Rain = 0
KCO2 261941Z 16013KT 31/20 A3012 RMK A01 T03050200  RH  053%=      5-min Rain = 0
KCO2 261942Z 16012KT 31/20 A3012 RMK A01 T03060196  RH  052%=      5-min Rain = 0
KCO2 261943Z 16011KT 30/20 A3012 RMK A01 T03030199  RH  053%=      5-min Rain = 0
KCO2 261944Z 17011KT 30/20 A3012 RMK A01 T03040195  RH  052%=      5-min Rain = 0
KCO2 261945Z 17013KT 30/20 A3012 RMK A01 T03020196  RH  053%=      5-min Rain = 0
KCO2 261946Z 16012KT 30/20 A3012 RMK A01 T03020196  RH  053%=      5-min Rain = 0
KCO2 261947Z 16010KT 30/20 A3012 RMK A01 T03030197  RH  053%=      5-min Rain = 0
KCO2 261948Z 15008KT 30/20 A3012 RMK A01 T03030196  RH  053%=      5-min Rain = 0
KCO2 261949Z 15011KT 30/20 A3012 RMK A01 T03030197  RH  053%=      5-min Rain = 0
KCO2 261950Z 16012KT 30/19 A3011 RMK A01 T03030194  RH  052%=      5-min Rain = 0
KCO2 261951Z 15009KT 30/20 A3012 RMK A01 T03030196  RH  053%=      5-min Rain = 0
KCO2 261952Z 15012KT 30/20 A3012 RMK A01 T03040197  RH  053%=      5-min Rain = 0
KCO2 261953Z 16014KT 31/19 A3012 RMK A01 T03060194  RH  051%=      5-min Rain = 0
KCO2 261954Z 16013KT 31/20 A3012 RMK A01 T03050196  RH  052%=      5-min Rain = 0
KCO2 261955Z 16012KT 31/20 A3012 RMK A01 T03060195  RH  052%=      5-min Rain = 0
KCO2 261956Z 16011G16KT 30/20 A3012 RMK A01 T03040195  RH  052%=      5-min Rain = 0
KCO2 261957Z 16008G14KT 30/19 A3011 RMK A01 T03020193  RH  052%=      5-min Rain = 0
KCO2 261958Z 17011G17KT 30/20 A3011 RMK A01 T03010196  RH  053%=      5-min Rain = 0
KCO2 261959Z 17013KT 30/19 A3011 RMK A01 T03030194  RH  052%=      5-min Rain = 0
KCO2 262000Z 14012KT 31/20 A3011 RMK A01 T03050195  RH  052%=      5-min Rain = 0
KCO2 262001Z 16009KT 31/19 A3011 RMK A01 T03060193  RH  051%=      5-min Rain = 0
KCO2 262002Z 15007KT 31/19 A3011 RMK A01 T03050194  RH  052%=      5-min Rain = 0
KCO2 262003Z 15014KT 31/19 A3011 RMK A01 T03050194  RH  051%=      5-min Rain = 0
KCO2 262004Z 15015KT 31/19 A3011 RMK A01 T03070193  RH  051%=      5-min Rain = 0
KCO2 262005Z 15011KT 31/19 A3011 RMK A01 T03060191  RH  050%=      5-min Rain = 0
KCO2 262006Z 16009KT 30/19 A3011 RMK A01 T03030193  RH  052%=      5-min Rain = 0
KCO2 262007Z 16008KT 30/19 A3011 RMK A01 T03030194  RH  052%=      5-min Rain = 0
KCO2 262008Z 14011KT 30/20 A3011 RMK A01 T03040196  RH  052%=      5-min Rain = 0
KCO2 262009Z 14012G17KT 31/19 A3011 RMK A01 T03090194  RH  050%=      5-min Rain = 0
KCO2 262010Z 13012G17KT 31/19 A3011 RMK A01 T03110191  RH  049%=      5-min Rain = 0
KCO2 262011Z 14011KT 31/19 A3011 RMK A01 T03100191  RH  049%=      5-min Rain = 0
KCO2 262012Z 14011KT 31/19 A3011 RMK A01 T03080190  RH  049%=      5-min Rain = 0
KCO2 262013Z 16013KT 31/19 A3011 RMK A01 T03070190  RH  050%=      5-min Rain = 0
KCO2 262014Z 16011KT 31/19 A3011 RMK A01 T03080186  RH  048%=      5-min Rain = 0
KCO2 262015Z 16009KT 31/19 A3011 RMK A01 T03070188  RH  049%=      5-min Rain = 0
KCO2 262016Z 16012KT 31/19 A3011 RMK A01 T03080187  RH  048%=      5-min Rain = 0
KCO2 262017Z 17010KT 31/19 A3011 RMK A01 T03080188  RH  049%=      5-min Rain = 0
KCO2 262018Z 14009KT 31/19 A3011 RMK A01 T03070192  RH  050%=      5-min Rain = 0
KCO2 262019Z 15010KT 31/20 A3011 RMK A01 T03100195  RH  050%=      5-min Rain = 0
KCO2 262020Z 15011KT 31/19 A3011 RMK A01 T03120194  RH  049%=      5-min Rain = 0
KCO2 262021Z 13008KT 31/19 A3011 RMK A01 T03110192  RH  049%=      5-min Rain = 0
KCO2 262022Z 16008KT 31/19 A3011 RMK A01 T03110194  RH  050%=      5-min Rain = 0
KCO2 262023Z 15011KT 31/19 A3011 RMK A01 T03100191  RH  049%=      5-min Rain = 0
KCO2 262024Z 14013KT 31/19 A3011 RMK A01 T03090191  RH  049%=      5-min Rain = 0
KCO2 262025Z 16010KT 31/19 A3011 RMK A01 T03100192  RH  049%=      5-min Rain = 0
KCO2 262026Z 18012KT 31/19 A3011 RMK A01 T03130191  RH  048%=      5-min Rain = 0
KCO2 262027Z 17008KT 31/19 A3011 RMK A01 T03130191  RH  048%=      5-min Rain = 0
KCO2 262028Z 16008KT 31/19 A3011 RMK A01 T03140193  RH  049%=      5-min Rain = 0
KCO2 262029Z 17010G15KT 32/19 A3011 RMK A01 T03160193  RH  048%=      5-min Rain = 0
KCO2 262030Z 18008KT 32/19 A3011 RMK A01 T03170191  RH  047%=      5-min Rain = 0
KCO2 262031Z 16005KT 32/20 A301 RMK A01 T03160195  RH  048%=      5-min Rain = 0
KCO2 262032Z 16009KT 32/19 A301 RMK A01 T03180194  RH  048%=      5-min Rain = 0
KCO2 262033Z 17011KT 32/19 A301 RMK A01 T03200194  RH  047%=      5-min Rain = 0
KCO2 262034Z 16012KT 32/19 A301 RMK A01 T03200192  RH  047%=      5-min Rain = 0
KCO2 262035Z 16011KT 32/19 A301 RMK A01 T03190191  RH  047%=      5-min Rain = 0
KCO2 262036Z 16006KT 32/19 A301 RMK A01 T03150186  RH  046%=      5-min Rain = 0
KCO2 262037Z 17008KT 31/19 A301 RMK A01 T03110188  RH  048%=      5-min Rain = 0
KCO2 262038Z 16010KT 31/19 A301 RMK A01 T03110191  RH  049%=      5-min Rain = 0
KCO2 262039Z 16014KT 31/19 A301 RMK A01 T03120188  RH  048%=      5-min Rain = 0
KCO2 262040Z 16014KT 31/19 A301 RMK A01 T03130189  RH  048%=      5-min Rain = 0
KCO2 262041Z 17013KT 31/19 A301 RMK A01 T03140188  RH  047%=      5-min Rain = 0
KCO2 262042Z 18009KT 31/19 A301 RMK A01 T03130187  RH  047%=      5-min Rain = 0
KCO2 262043Z 16010KT 31/19 A301 RMK A01 T03110188  RH  048%=      5-min Rain = 0
KCO2 262044Z 17010KT 31/19 A301 RMK A01 T03110188  RH  048%=      5-min Rain = 0
KCO2 262045Z 17008KT 31/19 A301 RMK A01 T03130191  RH  048%=      5-min Rain = 0
KCO2 262046Z 16009KT 32/19 A301 RMK A01 T03150191  RH  048%=      5-min Rain = 0
KCO2 262047Z 14014KT 32/19 A301 RMK A01 T03170186  RH  046%=      5-min Rain = 0
KCO2 262048Z 15011KT 32/18 A301 RMK A01 T03170184  RH  045%=      5-min Rain = 0
KCO2 262049Z 14012KT 32/19 A301 RMK A01 T03170185  RH  046%=      5-min Rain = 0
KCO2 262050Z 14010KT 32/19 A301 RMK A01 T03170187  RH  046%=      5-min Rain = 0
KCO2 262051Z 15008KT 32/19 A301 RMK A01 T03160186  RH  046%=      5-min Rain = 0
KCO2 262052Z 16009KT 32/19 A301 RMK A01 T03150186  RH  046%=      5-min Rain = 0
KCO2 262053Z 15011KT 31/19 A301 RMK A01 T03140187  RH  047%=      5-min Rain = 0
KCO2 262054Z 14011KT 31/19 A301 RMK A01 T03130188  RH  047%=      5-min Rain = 0
KCO2 262055Z 15008KT 31/19 A301 RMK A01 T03140189  RH  048%=      5-min Rain = 0
KCO2 262056Z 14012G17KT 31/19 A301 RMK A01 T03140191  RH  048%=      5-min Rain = 0
KCO2 262057Z 14010KT 32/19 A3009 RMK A01 T03160190  RH  047%=      5-min Rain = 0
KCO2 262058Z 15014KT 32/19 A3009 RMK A01 T03180191  RH  047%=      5-min Rain = 0
KCO2 262059Z 16013KT 32/19 A3009 RMK A01 T03190189  RH  046%=      5-min Rain = 0
KCO2 262100Z 14011KT 32/19 A3009 RMK A01 T03170191  RH  047%=      5-min Rain = 0
KCO2 262101Z 14011KT 32/19 A3009 RMK A01 T03180189  RH  046%=      5-min Rain = 0
KCO2 262102Z 11010KT 32/19 A3009 RMK A01 T03170190  RH  047%=      5-min Rain = 0
KCO2 262103Z 12010KT 32/19 A3009 RMK A01 T03170192  RH  048%=      5-min Rain = 0
KCO2 262104Z 14014KT 32/19 A3009 RMK A01 T03200192  RH  047%=      5-min Rain = 0
KCO2 262105Z 15012KT 32/19 A3009 RMK A01 T03210188  RH  045%=      5-min Rain = 0
KCO2 262106Z 15010KT 32/19 A3009 RMK A01 T03200188  RH  046%=      5-min Rain = 0
KCO2 262107Z 14012KT 32/19 A3009 RMK A01 T03200189  RH  046%=      5-min Rain = 0
KCO2 262108Z 14013KT 32/19 A3009 RMK A01 T03200187  RH  045%=      5-min Rain = 0
KCO2 262109Z 12013KT 32/19 A3009 RMK A01 T03200191  RH  046%=      5-min Rain = 0
KCO2 262110Z 14012KT 32/19 A3009 RMK A01 T03200188  RH  046%=      5-min Rain = 0
KCO2 262111Z 15011KT 32/19 A3009 RMK A01 T03180187  RH  046%=      5-min Rain = 0
KCO2 262112Z 16008KT 32/19 A3009 RMK A01 T03170188  RH  046%=      5-min Rain = 0
KCO2 262113Z 15012KT 32/19 A3009 RMK A01 T03170192  RH  048%=      5-min Rain = 0
KCO2 262114Z 16011KT 32/19 A3009 RMK A01 T03180190  RH  046%=      5-min Rain = 0
KCO2 262115Z 14009KT 32/19 A3009 RMK A01 T03180190  RH  047%=      5-min Rain = 0
KCO2 262116Z 15010KT 32/19 A3009 RMK A01 T03180191  RH  047%=      5-min Rain = 0
KCO2 262117Z 16012KT 32/19 A3009 RMK A01 T03180190  RH  047%=      5-min Rain = 0
KCO2 262118Z 16008KT 32/19 A3009 RMK A01 T03180189  RH  047%=      5-min Rain = 0
KCO2 262119Z 17008KT 32/19 A3009 RMK A01 T03180190  RH  047%=      5-min Rain = 0
KCO2 262120Z 15011KT 32/19 A3009 RMK A01 T03190190  RH  047%=      5-min Rain = 0
KCO2 262121Z 14012KT 32/19 A3009 RMK A01 T03190187  RH  045%=      5-min Rain = 0
KCO2 262122Z 13012KT 32/19 A3009 RMK A01 T03180187  RH  046%=      5-min Rain = 0
KCO2 262123Z 13008KT 32/19 A3009 RMK A01 T03180188  RH  046%=      5-min Rain = 0
KCO2 262124Z 14010KT 32/19 A3009 RMK A01 T03210191  RH  046%=      5-min Rain = 0
KCO2 262125Z 14009KT 32/19 A3009 RMK A01 T03200185  RH  045%=      5-min Rain = 0
KCO2 262126Z 14008KT 32/19 A3009 RMK A01 T03170185  RH  045%=      5-min Rain = 0
KCO2 262127Z 14011KT 32/19 A3009 RMK A01 T03160187  RH  047%=      5-min Rain = 0
KCO2 262128Z 16013KT 32/19 A3009 RMK A01 T03160190  RH  047%=      5-min Rain = 0
KCO2 262129Z 16010KT 32/19 A3009 RMK A01 T03180187  RH  046%=      5-min Rain = 0
KCO2 262130Z 14010KT 32/19 A3009 RMK A01 T03200190  RH  046%=      5-min Rain = 0
KCO2 262131Z 13012KT 32/19 A3009 RMK A01 T03220188  RH  045%=      5-min Rain = 0
KCO2 262132Z 14011KT 32/19 A3009 RMK A01 T03220187  RH  045%=      5-min Rain = 0
KCO2 262133Z 15010KT 32/19 A3009 RMK A01 T03200187  RH  045%=      5-min Rain = 0
KCO2 262134Z 16012KT 32/19 A3009 RMK A01 T03190187  RH  046%=      5-min Rain = 0
KCO2 262135Z 16011KT 32/19 A3009 RMK A01 T03190185  RH  045%=      5-min Rain = 0
KCO2 262136Z 16012KT 32/19 A3009 RMK A01 T03180186  RH  046%=      5-min Rain = 0
KCO2 262137Z 15012KT 32/19 A3009 RMK A01 T03180187  RH  046%=      5-min Rain = 0
KCO2 262138Z 17007KT 32/19 A3009 RMK A01 T03160185  RH  046%=      5-min Rain = 0
KCO2 262139Z 18007KT 32/19 A3008 RMK A01 T03150189  RH  047%=      5-min Rain = 0
KCO2 262140Z 16008KT 32/19 A3008 RMK A01 T03160191  RH  047%=      5-min Rain = 0
KCO2 262141Z 13012G17KT 32/19 A3008 RMK A01 T03200193  RH  047%=      5-min Rain = 0
KCO2 262142Z 14009KT 32/19 A3008 RMK A01 T03220188  RH  045%=      5-min Rain = 0
KCO2 262143Z 14010KT 32/19 A3008 RMK A01 T03220189  RH  045%=      5-min Rain = 0
KCO2 262144Z 14009KT 32/19 A3008 RMK A01 T03220189  RH  045%=      5-min Rain = 0
KCO2 262145Z 15010KT 32/19 A3008 RMK A01 T03210189  RH  046%=      5-min Rain = 0
KCO2 262146Z 15013KT 32/19 A3008 RMK A01 T03210189  RH  046%=      5-min Rain = 0
KCO2 262147Z 16008KT 32/19 A3008 RMK A01 T03200188  RH  046%=      5-min Rain = 0
KCO2 262148Z 16008KT 32/19 A3008 RMK A01 T03200191  RH  047%=      5-min Rain = 0
KCO2 262149Z 14012KT 32/19 A3008 RMK A01 T03200188  RH  045%=      5-min Rain = 0
KCO2 262150Z 14012KT 32/19 A3008 RMK A01 T03190186  RH  045%=      5-min Rain = 0
KCO2 262151Z 15008KT 32/19 A3008 RMK A01 T03190187  RH  045%=      5-min Rain = 0
KCO2 262152Z 16008KT 32/19 A3008 RMK A01 T03200188  RH  046%=      5-min Rain = 0
KCO2 262153Z 16010KT 32/19 A3008 RMK A01 T03200190  RH  046%=      5-min Rain = 0
KCO2 262154Z 14013KT 32/19 A3008 RMK A01 T03210190  RH  046%=      5-min Rain = 0
KCO2 262155Z 13008KT 32/19 A3008 RMK A01 T03210187  RH  045%=      5-min Rain = 0
KCO2 262156Z 15008KT 32/19 A3008 RMK A01 T03190187  RH  046%=      5-min Rain = 0
KCO2 262157Z 16012G18KT 32/19 A3008 RMK A01 T03180188  RH  046%=      5-min Rain = 0
KCO2 262158Z 14014KT 32/18 A3008 RMK A01 T03190184  RH  045%=      5-min Rain = 0
KCO2 262159Z 14013KT 32/18 A3008 RMK A01 T03200184  RH  044%=      5-min Rain = 0
KCO2 262200Z 15013KT 32/18 A3008 RMK A01 T03200182  RH  044%=      5-min Rain = 0
KCO2 262201Z 15013KT 32/18 A3008 RMK A01 T03190182  RH  044%=      5-min Rain = 0
KCO2 262202Z 15010KT 32/18 A3008 RMK A01 T03180181  RH  044%=      5-min Rain = 0
KCO2 262203Z 15011G16KT 32/18 A3008 RMK A01 T03180183  RH  045%=      5-min Rain = 0
KCO2 262204Z 13013KT 32/18 A3008 RMK A01 T03170182  RH  044%=      5-min Rain = 0
KCO2 262205Z 14012G17KT 32/18 A3008 RMK A01 T03180181  RH  044%=      5-min Rain = 0
KCO2 262206Z 17010KT 32/18 A3007 RMK A01 T03180183  RH  045%=      5-min Rain = 0
KCO2 262207Z 17010KT 32/19 A3007 RMK A01 T03200185  RH  045%=      5-min Rain = 0
KCO2 262208Z 17010KT 32/18 A3007 RMK A01 T03210183  RH  044%=      5-min Rain = 0
KCO2 262209Z 17012KT 32/18 A3007 RMK A01 T03200184  RH  044%=      5-min Rain = 0
KCO2 262210Z 17011KT 32/18 A3007 RMK A01 T03200182  RH  044%=      5-min Rain = 0
KCO2 262211Z 16012KT 32/18 A3007 RMK A01 T03210182  RH  044%=      5-min Rain = 0
KCO2 262212Z 17010KT 32/18 A3007 RMK A01 T03210183  RH  044%=      5-min Rain = 0
KCO2 262213Z 17009KT 32/18 A3007 RMK A01 T03210182  RH  044%=      5-min Rain = 0
KCO2 262214Z 16007KT 32/18 A3007 RMK A01 T03210183  RH  044%=      5-min Rain = 0
KCO2 262215Z 15010KT 32/19 A3008 RMK A01 T03210186  RH  045%=      5-min Rain = 0
KCO2 262216Z 15011KT 32/18 A3008 RMK A01 T03210184  RH  044%=      5-min Rain = 0
KCO2 262217Z 14012KT 32/19 A3008 RMK A01 T03210185  RH  045%=      5-min Rain = 0
KCO2 262218Z 14012KT 32/18 A3008 RMK A01 T03210183  RH  044%=      5-min Rain = 0
KCO2 262219Z 14010KT 32/18 A3008 RMK A01 T03200182  RH  044%=      5-min Rain = 0
KCO2 262220Z 14009G14KT 32/18 A3007 RMK A01 T03200181  RH  044%=      5-min Rain = 0
KCO2 262221Z 14013KT 32/18 A3008 RMK A01 T03190179  RH  043%=      5-min Rain = 0
KCO2 262222Z 14011KT 32/18 A3008 RMK A01 T03190177  RH  043%=      5-min Rain = 0
KCO2 262223Z 15010KT 32/18 A3008 RMK A01 T03190176  RH  043%=      5-min Rain = 0
KCO2 262224Z 14009KT 32/18 A3008 RMK A01 T03190181  RH  044%=      5-min Rain = 0
KCO2 262225Z 14011KT 32/19 A3008 RMK A01 T03190187  RH  046%=      5-min Rain = 0
KCO2 262226Z 14011KT 32/19 A3008 RMK A01 T03210187  RH  045%=      5-min Rain = 0
KCO2 262227Z 15012KT 32/19 A3008 RMK A01 T03210186  RH  045%=      5-min Rain = 0
KCO2 262228Z 13011KT 32/19 A3008 RMK A01 T03210187  RH  045%=      5-min Rain = 0
KCO2 262229Z 12009KT 32/19 A3008 RMK A01 T03210186  RH  045%=      5-min Rain = 0
KCO2 262230Z 14007KT 32/18 A3008 RMK A01 T03210183  RH  044%=      5-min Rain = 0
KCO2 262231Z 16008KT 32/19 A3008 RMK A01 T03190187  RH  045%=      5-min Rain = 0
KCO2 262232Z 15007KT 32/19 A3008 RMK A01 T03190186  RH  045%=      5-min Rain = 0
KCO2 262233Z 15010KT 32/19 A3008 RMK A01 T03200187  RH  045%=      5-min Rain = 0
KCO2 262234Z 15013KT 32/19 A3008 RMK A01 T03210185  RH  044%=      5-min Rain = 0
KCO2 262235Z 15012KT 32/18 A3008 RMK A01 T03220183  RH  044%=      5-min Rain = 0
KCO2 262236Z 15011KT 32/18 A3008 RMK A01 T03210183  RH  044%=      5-min Rain = 0
KCO2 262237Z 15014KT 32/18 A3008 RMK A01 T03200182  RH  044%=      5-min Rain = 0
KCO2 262238Z 15012KT 32/18 A3008 RMK A01 T03200180  RH  043%=      5-min Rain = 0
KCO2 262239Z 15012KT 32/18 A3008 RMK A01 T03190180  RH  043%=      5-min Rain = 0
KCO2 262240Z 15011KT 32/18 A3008 RMK A01 T03190181  RH  044%=      5-min Rain = 0
KCO2 262241Z 14012G17KT 32/18 A3007 RMK A01 T03180183  RH  044%=      5-min Rain = 0
KCO2 262242Z 15013G18KT 32/18 A3008 RMK A01 T03180184  RH  045%=      5-min Rain = 0
KCO2 262243Z 15010KT 32/19 A3007 RMK A01 T03180186  RH  045%=      5-min Rain = 0
KCO2 262244Z 14010KT 32/19 A3007 RMK A01 T03180185  RH  045%=      5-min Rain = 0
KCO2 262245Z 15007KT 32/18 A3007 RMK A01 T03180181  RH  044%=      5-min Rain = 0
KCO2 262246Z 15008KT 32/18 A3007 RMK A01 T03180184  RH  045%=      5-min Rain = 0
KCO2 262247Z 13011KT 32/19 A3007 RMK A01 T03180186  RH  045%=      5-min Rain = 0
KCO2 262248Z 14010KT 32/18 A3007 RMK A01 T03190183  RH  044%=      5-min Rain = 0
KCO2 262249Z 14013KT 32/18 A3007 RMK A01 T03190184  RH  045%=      5-min Rain = 0
KCO2 262250Z 15012KT 32/18 A3007 RMK A01 T03190184  RH  045%=      5-min Rain = 0
KCO2 262251Z 15012KT 32/18 A3007 RMK A01 T03190184  RH  045%=      5-min Rain = 0
KCO2 262252Z 14010KT 32/19 A3007 RMK A01 T03200187  RH  045%=      5-min Rain = 0
KCO2 262253Z 14011KT 32/18 A3007 RMK A01 T03210184  RH  044%=      5-min Rain = 0
KCO2 262254Z 14012KT 32/18 A3007 RMK A01 T03210184  RH  044%=      5-min Rain = 0
KCO2 262255Z 14012KT 32/19 A3007 RMK A01 T03200185  RH  045%=      5-min Rain = 0
KCO2 262256Z 14011KT 32/18 A3007 RMK A01 T03200182  RH  044%=      5-min Rain = 0
KCO2 262257Z 14010KT 32/18 A3007 RMK A01 T03200184  RH  044%=      5-min Rain = 0
KCO2 262258Z 14011KT 32/18 A3007 RMK A01 T03200181  RH  044%=      5-min Rain = 0
KCO2 262259Z 16009KT 32/18 A3007 RMK A01 T03180184  RH  045%=      5-min Rain = 0
KCO2 262300Z 15009KT 32/18 A3007 RMK A01 T03180184  RH  045%=      5-min Rain = 0
KCO2 262301Z 14009KT 32/19 A3007 RMK A01 T03190187  RH  046%=      5-min Rain = 0
KCO2 262302Z 15011KT 32/18 A3007 RMK A01 T03200180  RH  043%=      5-min Rain = 0
KCO2 262303Z 14008KT 32/18 A3007 RMK A01 T03190182  RH  044%=      5-min Rain = 0
KCO2 262304Z 13010KT 32/18 A3007 RMK A01 T03190182  RH  044%=      5-min Rain = 0
KCO2 262305Z 14013KT 32/18 A3007 RMK A01 T03200181  RH  044%=      5-min Rain = 0
KCO2 262306Z 15011KT 32/18 A3007 RMK A01 T03200182  RH  044%=      5-min Rain = 0
KCO2 262307Z 14012KT 32/18 A3007 RMK A01 T03190181  RH  044%=      5-min Rain = 0
KCO2 262308Z 14011KT 32/18 A3007 RMK A01 T03180183  RH  045%=      5-min Rain = 0
KCO2 262309Z 13012KT 32/18 A3007 RMK A01 T03180182  RH  044%=      5-min Rain = 0
KCO2 262310Z 14012KT 32/18 A3007 RMK A01 T03180177  RH  043%=      5-min Rain = 0
KCO2 262311Z 14013KT 32/18 A3007 RMK A01 T03170178  RH  044%=      5-min Rain = 0
KCO2 262312Z 14012KT 32/18 A3007 RMK A01 T03170180  RH  044%=      5-min Rain = 0
KCO2 262313Z 14011KT 32/18 A3007 RMK A01 T03170181  RH  044%=      5-min Rain = 0
KCO2 262314Z 15013KT 32/18 A3007 RMK A01 T03170182  RH  045%=      5-min Rain = 0
KCO2 262315Z 15010KT 32/18 A3007 RMK A01 T03170180  RH  044%=      5-min Rain = 0
KCO2 262316Z 15012KT 32/18 A3007 RMK A01 T03170180  RH  044%=      5-min Rain = 0
KCO2 262317Z 14011KT 32/18 A3007 RMK A01 T03170179  RH  044%=      5-min Rain = 0
KCO2 262318Z 15009KT 32/18 A3007 RMK A01 T03160178  RH  044%=      5-min Rain = 0
KCO2 262319Z 14009KT 32/18 A3007 RMK A01 T03160183  RH  045%=      5-min Rain = 0
KCO2 262320Z 13009KT 32/18 A3007 RMK A01 T03170184  RH  045%=      5-min Rain = 0
KCO2 262321Z 15009KT 32/18 A3007 RMK A01 T03180184  RH  045%=      5-min Rain = 0
KCO2 262322Z 16010KT 32/18 A3007 RMK A01 T03190184  RH  045%=      5-min Rain = 0
KCO2 262323Z 17011KT 32/18 A3007 RMK A01 T03200184  RH  044%=      5-min Rain = 0
KCO2 262324Z 17012KT 32/18 A3007 RMK A01 T03200184  RH  044%=      5-min Rain = 0
KCO2 262325Z 18010KT 32/19 A3007 RMK A01 T03190185  RH  045%=      5-min Rain = 0
KCO2 262326Z 17010KT 32/18 A3007 RMK A01 T03180184  RH  045%=      5-min Rain = 0
KCO2 262327Z 17010KT 32/19 A3007 RMK A01 T03180186  RH  046%=      5-min Rain = 0
KCO2 262328Z 15014KT 32/19 A3007 RMK A01 T03170185  RH  045%=      5-min Rain = 0
KCO2 262329Z 16012KT 32/18 A3007 RMK A01 T03170182  RH  045%=      5-min Rain = 0
KCO2 262330Z 17012KT 32/18 A3007 RMK A01 T03160183  RH  045%=      5-min Rain = 0
KCO2 262331Z 16011KT 32/18 A3007 RMK A01 T03150184  RH  046%=      5-min Rain = 0
KCO2 262332Z 16010KT 31/19 A3007 RMK A01 T03130185  RH  046%=      5-min Rain = 0
KCO2 262333Z 16009KT 31/19 A3007 RMK A01 T03130187  RH  047%=      5-min Rain = 0
KCO2 262334Z 16012KT 31/19 A3007 RMK A01 T03130185  RH  046%=      5-min Rain = 0
KCO2 262335Z 15011KT 31/18 A3007 RMK A01 T03130182  RH  046%=      5-min Rain = 0
KCO2 262336Z 15013KT 31/18 A3007 RMK A01 T03120183  RH  046%=      5-min Rain = 0
KCO2 262337Z 16011KT 31/18 A3007 RMK A01 T03120183  RH  046%=      5-min Rain = 0
KCO2 262338Z 17012KT 31/18 A3007 RMK A01 T03120184  RH  047%=      5-min Rain = 0
KCO2 262339Z 18010KT 31/18 A3006 RMK A01 T03110183  RH  046%=      5-min Rain = 0
KCO2 262340Z 17009KT 31/18 A3006 RMK A01 T03100182  RH  047%=      5-min Rain = 0
KCO2 262341Z 16010KT 31/19 A3006 RMK A01 T03100185  RH  047%=      5-min Rain = 0
KCO2 262342Z 15010KT 31/19 A3007 RMK A01 T03100185  RH  047%=      5-min Rain = 0
KCO2 262343Z 15012KT 31/18 A3006 RMK A01 T03100180  RH  046%=      5-min Rain = 0
KCO2 262344Z 15010KT 31/18 A3006 RMK A01 T03090180  RH  046%=      5-min Rain = 0
KCO2 262345Z 15009KT 31/18 A3006 RMK A01 T03080183  RH  047%=      5-min Rain = 0
KCO2 262346Z 15009KT 31/18 A3006 RMK A01 T03080180  RH  046%=      5-min Rain = 0
KCO2 262347Z 14010KT 31/18 A3006 RMK A01 T03070183  RH  047%=      5-min Rain = 0
KCO2 262348Z 14014KT 31/18 A3006 RMK A01 T03060182  RH  047%=      5-min Rain = 0
KCO2 262349Z 14011KT 31/18 A3006 RMK A01 T03050180  RH  047%=      5-min Rain = 0
KCO2 262350Z 15013KT 30/18 A3006 RMK A01 T03040181  RH  048%=      5-min Rain = 0
KCO2 262351Z 15011KT 30/18 A3006 RMK A01 T03020180  RH  048%=      5-min Rain = 0
KCO2 262352Z 16012KT 30/18 A3006 RMK A01 T03020181  RH  048%=      5-min Rain = 0
KCO2 262353Z 15008KT 30/18 A3006 RMK A01 T03020180  RH  048%=      5-min Rain = 0
KCO2 262354Z 16006KT 30/18 A3006 RMK A01 T03010182  RH  049%=      5-min Rain = 0
KCO2 262355Z 17012KT 30/18 A3006 RMK A01 T03010182  RH  049%=      5-min Rain = 0
KCO2 262356Z 17011KT 30/18 A3006 RMK A01 T03010178  RH  048%=      5-min Rain = 0
KCO2 262357Z 17009KT 30/18 A3006 RMK A01 T03010178  RH  048%=      5-min Rain = 0
KCO2 262358Z 17010KT 30/18 A3006 RMK A01 T03010180  RH  048%=      5-min Rain = 0
KCO2 262359Z 17012KT 30/18 A3006 RMK A01 T03010178  RH  048%=      5-min Rain = 0
KCO2 270000Z 16010KT 30/18 A3006 RMK A01 T03010177  RH  047%=      5-min Rain = 0
KCO2 270001Z 16009KT 30/18 A3007 RMK A01 T03010178  RH  048%=      5-min Rain = 0
KCO2 270002Z 16010KT 30/18 A3007 RMK A01 T03010178  RH  048%=      5-min Rain = 0
KCO2 270003Z 16010KT 30/18 A3007 RMK A01 T03010179  RH  048%=      5-min Rain = 0
KCO2 270004Z 16010KT 30/18 A3007 RMK A01 T03010178  RH  048%=      5-min Rain = 0
KCO2 270005Z 17010KT 30/18 A3007 RMK A01 T03010178  RH  048%=      5-min Rain = 0
KCO2 270006Z 17013KT 30/18 A3007 RMK A01 T03010178  RH  048%=      5-min Rain = 0
KCO2 270007Z 16011KT 30/18 A3007 RMK A01 T03010177  RH  047%=      5-min Rain = 0
KCO2 270008Z 16012KT 30/18 A3007 RMK A01 T03010176  RH  047%=      5-min Rain = 0
KCO2 270009Z 17009KT 30/18 A3007 RMK A01 T03020175  RH  047%=      5-min Rain = 0
KCO2 270010Z 16009KT 30/18 A3007 RMK A01 T03020177  RH  047%=      5-min Rain = 0
KCO2 270011Z 15009KT 30/18 A3006 RMK A01 T03020177  RH  047%=      5-min Rain = 0
KCO2 270012Z 15009KT 30/18 A3006 RMK A01 T03020179  RH  048%=      5-min Rain = 0
KCO2 270013Z 15009KT 30/18 A3006 RMK A01 T03020182  RH  049%=      5-min Rain = 0
KCO2 270014Z 14010KT 30/19 A3006 RMK A01 T03020185  RH  050%=      5-min Rain = 0
KCO2 270015Z 15010KT 30/19 A3006 RMK A01 T03020187  RH  050%=      5-min Rain = 0
KCO2 270016Z 15011KT 30/19 A3006 RMK A01 T03020188  RH  050%=      5-min Rain = 0
KCO2 270017Z 15012KT 30/19 A3006 RMK A01 T03020187  RH  050%=      5-min Rain = 0
KCO2 270018Z 14013KT 30/19 A3006 RMK A01 T03020187  RH  050%=      5-min Rain = 0
KCO2 270019Z 15011KT 30/19 A3006 RMK A01 T03020187  RH  050%=      5-min Rain = 0
KCO2 270020Z 15011KT 30/19 A3006 RMK A01 T03020188  RH  051%=      5-min Rain = 0
KCO2 270021Z 15010KT 30/19 A3006 RMK A01 T03020189  RH  051%=      5-min Rain = 0
KCO2 270022Z 14010KT 30/19 A3006 RMK A01 T03020189  RH  051%=      5-min Rain = 0
KCO2 270023Z 14011KT 30/19 A3007 RMK A01 T03020188  RH  050%=      5-min Rain = 0
KCO2 270024Z 15010KT 30/19 A3007 RMK A01 T03020188  RH  050%=      5-min Rain = 0
KCO2 270025Z 15012KT 30/19 A3007 RMK A01 T03020189  RH  051%=      5-min Rain = 0
KCO2 270026Z 15011KT 30/19 A3007 RMK A01 T03020189  RH  051%=      5-min Rain = 0
KCO2 270027Z 15010KT 30/19 A3007 RMK A01 T03020190  RH  051%=      5-min Rain = 0
KCO2 270028Z 15012KT 30/19 A3007 RMK A01 T03020189  RH  051%=      5-min Rain = 0
KCO2 270029Z 16010KT 30/19 A3007 RMK A01 T03020189  RH  051%=      5-min Rain = 0
KCO2 270030Z 16010KT 30/19 A3007 RMK A01 T03020190  RH  051%=      5-min Rain = 0
KCO2 270031Z 15008KT 30/19 A3007 RMK A01 T03020191  RH  052%=      5-min Rain = 0
KCO2 270032Z 15009KT 30/19 A3007 RMK A01 T03020192  RH  052%=      5-min Rain = 0
KCO2 270033Z 15010KT 30/19 A3007 RMK A01 T03010192  RH  052%=      5-min Rain = 0
KCO2 270034Z 16010G15KT 30/19 A3007 RMK A01 T03010191  RH  052%=      5-min Rain = 0
KCO2 270035Z 15011KT 30/19 A3007 RMK A01 T03010189  RH  051%=      5-min Rain = 0
KCO2 270036Z 14011KT 30/19 A3007 RMK A01 T03010191  RH  052%=      5-min Rain = 0
KCO2 270037Z 14012KT 30/19 A3007 RMK A01 T03010190  RH  051%=      5-min Rain = 0
KCO2 270038Z 15012KT 30/19 A3007 RMK A01 T03010189  RH  051%=      5-min Rain = 0
KCO2 270039Z 14012KT 30/19 A3007 RMK A01 T03010189  RH  051%=      5-min Rain = 0
KCO2 270040Z 14012KT 30/19 A3007 RMK A01 T03010189  RH  051%=      5-min Rain = 0
KCO2 270041Z 14013KT 30/19 A3007 RMK A01 T03010190  RH  051%=      5-min Rain = 0
KCO2 270042Z 15012KT 30/19 A3007 RMK A01 T03010189  RH  051%=      5-min Rain = 0
KCO2 270043Z 15012KT 30/19 A3007 RMK A01 T03010190  RH  051%=      5-min Rain = 0
KCO2 270044Z 16012KT 30/19 A3007 RMK A01 T03020190  RH  051%=      5-min Rain = 0
KCO2 270045Z 15013KT 30/19 A3007 RMK A01 T03020191  RH  051%=      5-min Rain = 0
KCO2 270046Z 15011KT 30/19 A3007 RMK A01 T03020191  RH  051%=      5-min Rain = 0
KCO2 270047Z 15010KT 30/19 A3007 RMK A01 T03020192  RH  052%=      5-min Rain = 0
KCO2 270048Z 16010KT 30/19 A3008 RMK A01 T03020193  RH  052%=      5-min Rain = 0
KCO2 270049Z 16009KT 30/19 A3008 RMK A01 T03010193  RH  052%=      5-min Rain = 0
KCO2 270050Z 16011KT 30/19 A3008 RMK A01 T03000192  RH  052%=      5-min Rain = 0
KCO2 270051Z 16009KT 30/19 A3008 RMK A01 T03000191  RH  052%=      5-min Rain = 0
KCO2 270052Z 16011KT 30/19 A3008 RMK A01 T02990191  RH  052%=      5-min Rain = 0
KCO2 270053Z 15010KT 30/19 A3008 RMK A01 T02990192  RH  052%=      5-min Rain = 0
KCO2 270054Z 15010KT 30/19 A3008 RMK A01 T02990191  RH  052%=      5-min Rain = 0
KCO2 270055Z 15009KT 30/19 A3008 RMK A01 T02980191  RH  052%=      5-min Rain = 0
KCO2 270056Z 15010KT 30/19 A3008 RMK A01 T02990193  RH  053%=      5-min Rain = 0
KCO2 270057Z 15010KT 30/19 A3008 RMK A01 T02980191  RH  052%=      5-min Rain = 0
KCO2 270058Z 15008KT 30/19 A3008 RMK A01 T02990193  RH  053%=      5-min Rain = 0
KCO2 270059Z 16010KT 30/19 A3008 RMK A01 T02990192  RH  053%=      5-min Rain = 0
KCO2 270100Z 14010KT 30/19 A3008 RMK A01 T02990191  RH  052%=      5-min Rain = 0
KCO2 270101Z 15010KT 30/19 A3008 RMK A01 T02990192  RH  053%=      5-min Rain = 0
KCO2 270102Z 14012KT 30/19 A3008 RMK A01 T03000191  RH  052%=      5-min Rain = 0
KCO2 270103Z 14012KT 30/19 A3008 RMK A01 T03000191  RH  052%=      5-min Rain = 0
KCO2 270104Z 15010KT 30/19 A3008 RMK A01 T02990191  RH  052%=      5-min Rain = 0
KCO2 270105Z 16011G17KT 30/19 A3008 RMK A01 T02990192  RH  053%=      5-min Rain = 0
KCO2 270106Z 15013KT 30/19 A3008 RMK A01 T02980189  RH  052%=      5-min Rain = 0
KCO2 270107Z 15012KT 30/19 A3008 RMK A01 T02970188  RH  052%=      5-min Rain = 0
KCO2 270108Z 15011KT 30/19 A3008 RMK A01 T02970190  RH  053%=      5-min Rain = 0
KCO2 270109Z 15012KT 30/19 A3008 RMK A01 T02960189  RH  053%=      5-min Rain = 0
KCO2 270110Z 16010KT 30/19 A3008 RMK A01 T02960190  RH  053%=      5-min Rain = 0
KCO2 270111Z 16012KT 30/19 A3008 RMK A01 T02950190  RH  053%=      5-min Rain = 0
KCO2 270112Z 14009KT 30/19 A3008 RMK A01 T02950191  RH  054%=      5-min Rain = 0
KCO2 270113Z 15008KT 29/19 A3008 RMK A01 T02940192  RH  054%=      5-min Rain = 0
KCO2 270114Z 15012KT 29/19 A3008 RMK A01 T02930192  RH  054%=      5-min Rain = 0
KCO2 270115Z 15014KT 29/19 A3008 RMK A01 T02930191  RH  054%=      5-min Rain = 0
KCO2 270116Z 15012KT 29/19 A3008 RMK A01 T02920190  RH  054%=      5-min Rain = 0
KCO2 270117Z 15013KT 29/19 A3008 RMK A01 T02920190  RH  054%=      5-min Rain = 0
KCO2 270118Z 14012KT 29/19 A3008 RMK A01 T02920188  RH  054%=      5-min Rain = 0
KCO2 270119Z 14009KT 29/19 A3008 RMK A01 T02920189  RH  054%=      5-min Rain = 0
KCO2 270120Z 15011KT 29/19 A3008 RMK A01 T02920189  RH  054%=      5-min Rain = 0
KCO2 270121Z 15012KT 29/19 A3008 RMK A01 T02910189  RH  054%=      5-min Rain = 0
KCO2 270122Z 15011KT 29/19 A3008 RMK A01 T02910189  RH  054%=      5-min Rain = 0
KCO2 270123Z 14009KT 29/19 A3008 RMK A01 T02910189  RH  054%=      5-min Rain = 0
KCO2 270124Z 14009KT 29/19 A3008 RMK A01 T02910190  RH  054%=      5-min Rain = 0
KCO2 270125Z 15011KT 29/19 A3008 RMK A01 T02900189  RH  054%=      5-min Rain = 0
KCO2 270126Z 15011KT 29/19 A3008 RMK A01 T02900189  RH  054%=      5-min Rain = 0
KCO2 270127Z 15010KT 29/19 A3008 RMK A01 T02890188  RH  054%=      5-min Rain = 0
KCO2 270128Z 14009KT 29/19 A3008 RMK A01 T02890188  RH  054%=      5-min Rain = 0
KCO2 270129Z 14008KT 29/19 A3008 RMK A01 T02890189  RH  055%=      5-min Rain = 0
KCO2 270130Z 14010KT 29/19 A3008 RMK A01 T02880189  RH  055%=      5-min Rain = 0
KCO2 270131Z 15010KT 29/19 A3008 RMK A01 T02880188  RH  055%=      5-min Rain = 0
KCO2 270132Z 15011KT 29/19 A3008 RMK A01 T02870188  RH  055%=      5-min Rain = 0
KCO2 270133Z 14011KT 29/19 A3008 RMK A01 T02870188  RH  055%=      5-min Rain = 0
KCO2 270134Z 15011KT 29/19 A3008 RMK A01 T02870188  RH  055%=      5-min Rain = 0
KCO2 270135Z 15012KT 29/19 A3008 RMK A01 T02860187  RH  055%=      5-min Rain = 0
KCO2 270136Z 14010KT 29/19 A3008 RMK A01 T02870187  RH  055%=      5-min Rain = 0
KCO2 270137Z 15010KT 29/19 A3008 RMK A01 T02870188  RH  055%=      5-min Rain = 0
KCO2 270138Z 15010KT 29/19 A3008 RMK A01 T02870188  RH  055%=      5-min Rain = 0
KCO2 270139Z 14009KT 29/19 A3008 RMK A01 T02860189  RH  056%=      5-min Rain = 0
KCO2 270140Z 15009KT 29/19 A3008 RMK A01 T02850189  RH  056%=      5-min Rain = 0
KCO2 270141Z 14010KT 28/19 A3008 RMK A01 T02840189  RH  056%=      5-min Rain = 0
KCO2 270142Z 15007KT 28/19 A3008 RMK A01 T02840190  RH  057%=      5-min Rain = 0
KCO2 270143Z 15008KT 28/19 A3008 RMK A01 T02830190  RH  057%=      5-min Rain = 0
KCO2 270144Z 14008KT 28/19 A3008 RMK A01 T02820190  RH  057%=      5-min Rain = 0
KCO2 270145Z 14009KT 28/19 A3008 RMK A01 T02810190  RH  058%=      5-min Rain = 0
KCO2 270146Z 14007KT 28/19 A3008 RMK A01 T02810191  RH  058%=      5-min Rain = 0
KCO2 270147Z 14007KT 28/19 A3008 RMK A01 T02800191  RH  059%=      5-min Rain = 0
KCO2 270148Z 14008KT 28/19 A3008 RMK A01 T02790191  RH  059%=      5-min Rain = 0
KCO2 270149Z 14008KT 28/19 A3008 RMK A01 T02780192  RH  059%=      5-min Rain = 0
KCO2 270150Z 14009KT 28/19 A3008 RMK A01 T02780192  RH  059%=      5-min Rain = 0
KCO2 270151Z 15008KT 28/19 A3008 RMK A01 T02770192  RH  060%=      5-min Rain = 0
KCO2 270152Z 15009KT 28/19 A3008 RMK A01 T02770192  RH  060%=      5-min Rain = 0
KCO2 270153Z 15008KT 28/19 A3008 RMK A01 T02780193  RH  060%=      5-min Rain = 0
KCO2 270154Z 14008KT 28/19 A3008 RMK A01 T02770192  RH  060%=      5-min Rain = 0
KCO2 270155Z 14009KT 28/19 A3008 RMK A01 T02770192  RH  060%=      5-min Rain = 0
KCO2 270156Z 15009KT 28/19 A3008 RMK A01 T02770192  RH  060%=      5-min Rain = 0
KCO2 270157Z 14009KT 28/19 A3008 RMK A01 T02770192  RH  060%=      5-min Rain = 0
KCO2 270158Z 14009KT 28/19 A3009 RMK A01 T02770193  RH  060%=      5-min Rain = 0
KCO2 270159Z 14009KT 28/19 A3009 RMK A01 T02770192  RH  060%=      5-min Rain = 0
KCO2 270200Z 15009KT 28/19 A3009 RMK A01 T02770193  RH  060%=      5-min Rain = 0
KCO2 270201Z 14010KT 28/19 A3009 RMK A01 T02770193  RH  060%=      5-min Rain = 0
KCO2 270202Z 14009KT 28/19 A3009 RMK A01 T02770192  RH  060%=      5-min Rain = 0
KCO2 270203Z 15009KT 28/19 A3009 RMK A01 T02760192  RH  060%=      5-min Rain = 0
KCO2 270204Z 14009KT 28/19 A3009 RMK A01 T02770193  RH  060%=      5-min Rain = 0
KCO2 270205Z 15008KT 28/19 A3009 RMK A01 T02760193  RH  060%=      5-min Rain = 0
KCO2 270206Z 15008KT 28/19 A3009 RMK A01 T02760194  RH  061%=      5-min Rain = 0
KCO2 270207Z 14009KT 28/19 A3009 RMK A01 T02750193  RH  061%=      5-min Rain = 0
KCO2 270208Z 14009KT 28/19 A3009 RMK A01 T02750194  RH  061%=      5-min Rain = 0
KCO2 270209Z 15009KT 28/19 A3009 RMK A01 T02750194  RH  061%=      5-min Rain = 0
KCO2 270210Z 14010KT 28/19 A3009 RMK A01 T02750194  RH  062%=      5-min Rain = 0
KCO2 270211Z 15009KT 28/20 A3009 RMK A01 T02750195  RH  062%=      5-min Rain = 0
KCO2 270212Z 14007KT 28/20 A3009 RMK A01 T02750195  RH  062%=      5-min Rain = 0
KCO2 270213Z 15008KT 28/20 A3009 RMK A01 T02750195  RH  062%=      5-min Rain = 0
KCO2 270214Z 14009KT 27/20 A3009 RMK A01 T02740195  RH  062%=      5-min Rain = 0
KCO2 270215Z 14008KT 27/20 A3009 RMK A01 T02740195  RH  062%=      5-min Rain = 0
KCO2 270216Z 14008KT 27/20 A3009 RMK A01 T02730195  RH  062%=      5-min Rain = 0
KCO2 270217Z 14008KT 27/20 A3009 RMK A01 T02730195  RH  063%=      5-min Rain = 0
KCO2 270218Z 14008KT 27/20 A3009 RMK A01 T02720195  RH  063%=      5-min Rain = 0
KCO2 270219Z 14008KT 27/20 A3009 RMK A01 T02720196  RH  063%=      5-min Rain = 0
KCO2 270220Z 14007KT 27/20 A3009 RMK A01 T02710195  RH  063%=      5-min Rain = 0
KCO2 270221Z 14007KT 27/20 A3009 RMK A01 T02710196  RH  063%=      5-min Rain = 0
KCO2 270222Z 14007KT 27/20 A3009 RMK A01 T02700195  RH  064%=      5-min Rain = 0
KCO2 270223Z 14007KT 27/20 A3009 RMK A01 T02690196  RH  064%=      5-min Rain = 0
KCO2 270224Z 14007KT 27/20 A3009 RMK A01 T02690196  RH  064%=      5-min Rain = 0
KCO2 270225Z 14008KT 27/20 A3009 RMK A01 T02680196  RH  064%=      5-min Rain = 0
KCO2 270226Z 15007KT 27/20 A3009 RMK A01 T02680196  RH  065%=      5-min Rain = 0
KCO2 270227Z 14008KT 27/20 A3009 RMK A01 T02680196  RH  065%=      5-min Rain = 0
KCO2 270228Z 14008KT 27/20 A3009 RMK A01 T02680196  RH  065%=      5-min Rain = 0
KCO2 270229Z 14009KT 27/20 A3009 RMK A01 T02670196  RH  065%=      5-min Rain = 0
KCO2 270230Z 14008KT 27/20 A3009 RMK A01 T02670196  RH  065%=      5-min Rain = 0
KCO2 270231Z 14008KT 27/20 A3009 RMK A01 T02670196  RH  065%=      5-min Rain = 0
KCO2 270232Z 14008KT 27/20 A3009 RMK A01 T02660196  RH  065%=      5-min Rain = 0
KCO2 270233Z 14007KT 27/20 A3009 RMK A01 T02660196  RH  065%=      5-min Rain = 0
KCO2 270234Z 14008KT 27/20 A3009 RMK A01 T02660196  RH  065%=      5-min Rain = 0
KCO2 270235Z 14008KT 27/20 A3009 RMK A01 T02650196  RH  066%=      5-min Rain = 0
KCO2 270236Z 14009KT 27/20 A3009 RMK A01 T02650196  RH  066%=      5-min Rain = 0
KCO2 270237Z 14007KT 27/20 A3009 RMK A01 T02650195  RH  065%=      5-min Rain = 0
KCO2 270238Z 14007KT 27/20 A3009 RMK A01 T02650195  RH  065%=      5-min Rain = 0
KCO2 270239Z 14007KT 27/20 A301 RMK A01 T02650196  RH  066%=      5-min Rain = 0
KCO2 270240Z 13007KT 26/20 A301 RMK A01 T02640195  RH  066%=      5-min Rain = 0
KCO2 270241Z 14007KT 26/20 A301 RMK A01 T02640196  RH  066%=      5-min Rain = 0
KCO2 270242Z 14007KT 26/20 A301 RMK A01 T02640195  RH  066%=      5-min Rain = 0
KCO2 270243Z 13008KT 26/20 A301 RMK A01 T02640195  RH  066%=      5-min Rain = 0
KCO2 270244Z 13007KT 26/20 A301 RMK A01 T02640195  RH  066%=      5-min Rain = 0
KCO2 270245Z 14008KT 26/20 A301 RMK A01 T02640195  RH  066%=      5-min Rain = 0
KCO2 270246Z 13008KT 26/20 A301 RMK A01 T02630195  RH  066%=      5-min Rain = 0
KCO2 270247Z 13008KT 26/20 A301 RMK A01 T02630195  RH  066%=      5-min Rain = 0
KCO2 270248Z 14008KT 26/20 A301 RMK A01 T02630195  RH  066%=      5-min Rain = 0
KCO2 270249Z 14008KT 26/20 A301 RMK A01 T02630195  RH  066%=      5-min Rain = 0
KCO2 270250Z 14008KT 26/20 A3011 RMK A01 T02630195  RH  066%=      5-min Rain = 0
KCO2 270251Z 14007KT 26/20 A3011 RMK A01 T02640195  RH  066%=      5-min Rain = 0
KCO2 270252Z 13008KT 26/20 A3011 RMK A01 T02640195  RH  066%=      5-min Rain = 0
KCO2 270253Z 14007KT 26/20 A3011 RMK A01 T02630195  RH  066%=      5-min Rain = 0
KCO2 270254Z 14008KT 26/20 A3011 RMK A01 T02630195  RH  066%=      5-min Rain = 0
KCO2 270255Z 14008KT 26/20 A3011 RMK A01 T02630195  RH  066%=      5-min Rain = 0
KCO2 270256Z 14009KT 26/20 A3011 RMK A01 T02620195  RH  066%=      5-min Rain = 0
KCO2 270257Z 14007KT 26/20 A3011 RMK A01 T02630195  RH  066%=      5-min Rain = 0
KCO2 270258Z 14008KT 26/20 A3011 RMK A01 T02630195  RH  066%=      5-min Rain = 0
KCO2 270259Z 14007KT 26/20 A3011 RMK A01 T02620195  RH  066%=      5-min Rain = 0
KCO2 270300Z 14007KT 26/20 A3011 RMK A01 T02620195  RH  067%=      5-min Rain = 0
KCO2 270301Z 14008KT 26/20 A3011 RMK A01 T02610195  RH  067%=      5-min Rain = 0
KCO2 270302Z 14007KT 26/20 A3011 RMK A01 T02610195  RH  067%=      5-min Rain = 0
KCO2 270303Z 14007KT 26/20 A3011 RMK A01 T02610195  RH  067%=      5-min Rain = 0
KCO2 270304Z 14007KT 26/20 A3011 RMK A01 T02610195  RH  067%=      5-min Rain = 0
KCO2 270305Z 14009KT 26/20 A3011 RMK A01 T02610195  RH  067%=      5-min Rain = 0
KCO2 270306Z 14008KT 26/20 A3011 RMK A01 T02600195  RH  067%=      5-min Rain = 0
KCO2 270307Z 14008KT 26/20 A3011 RMK A01 T02610195  RH  067%=      5-min Rain = 0
KCO2 270308Z 14008KT 26/19 A3012 RMK A01 T02600194  RH  067%=      5-min Rain = 0
KCO2 270309Z 14009KT 26/19 A3012 RMK A01 T02610194  RH  067%=      5-min Rain = 0
KCO2 270310Z 14009KT 26/19 A3012 RMK A01 T02610194  RH  067%=      5-min Rain = 0
KCO2 270311Z 14008KT 26/19 A3012 RMK A01 T02610194  RH  067%=      5-min Rain = 0
KCO2 270312Z 14009KT 26/19 A3012 RMK A01 T02610194  RH  066%=      5-min Rain = 0
KCO2 270313Z 14008KT 26/19 A3012 RMK A01 T02610194  RH  066%=      5-min Rain = 0
KCO2 270314Z 14007KT 26/19 A3012 RMK A01 T02610194  RH  066%=      5-min Rain = 0
KCO2 270315Z 14008KT 26/19 A3012 RMK A01 T02610194  RH  066%=      5-min Rain = 0
KCO2 270316Z 14009KT 26/19 A3012 RMK A01 T02610194  RH  067%=      5-min Rain = 0
KCO2 270317Z 14008KT 26/19 A3012 RMK A01 T02600193  RH  067%=      5-min Rain = 0
KCO2 270318Z 14008KT 26/19 A3012 RMK A01 T02600193  RH  067%=      5-min Rain = 0
KCO2 270319Z 14008KT 26/19 A3012 RMK A01 T02600194  RH  067%=      5-min Rain = 0
KCO2 270320Z 14007KT 26/19 A3012 RMK A01 T02590194  RH  067%=      5-min Rain = 0
KCO2 270321Z 14007KT 26/19 A3012 RMK A01 T02590194  RH  067%=      5-min Rain = 0
KCO2 270322Z 14007KT 26/19 A3013 RMK A01 T02580193  RH  067%=      5-min Rain = 0
KCO2 270323Z 14007KT 26/19 A3013 RMK A01 T02570193  RH  068%=      5-min Rain = 0
KCO2 270324Z 13007KT 26/19 A3013 RMK A01 T02570193  RH  068%=      5-min Rain = 0
KCO2 270325Z 13007KT 26/19 A3013 RMK A01 T02570193  RH  068%=      5-min Rain = 0
KCO2 270326Z 13007KT 26/19 A3013 RMK A01 T02570193  RH  068%=      5-min Rain = 0
KCO2 270327Z 13006KT 26/19 A3013 RMK A01 T02570193  RH  068%=      5-min Rain = 0
KCO2 270328Z 13007KT 26/19 A3013 RMK A01 T02560193  RH  068%=      5-min Rain = 0
KCO2 270329Z 13007KT 26/19 A3013 RMK A01 T02550193  RH  068%=      5-min Rain = 0
KCO2 270330Z 13007KT 25/19 A3013 RMK A01 T02540193  RH  069%=      5-min Rain = 0
KCO2 270331Z 13008KT 25/19 A3013 RMK A01 T02540193  RH  069%=      5-min Rain = 0
KCO2 270332Z 13008KT 25/19 A3013 RMK A01 T02540192  RH  069%=      5-min Rain = 0
KCO2 270333Z 13008KT 25/19 A3013 RMK A01 T02540192  RH  069%=      5-min Rain = 0
KCO2 270334Z 13008KT 25/19 A3013 RMK A01 T02540192  RH  069%=      5-min Rain = 0
KCO2 270335Z 13008KT 25/19 A3013 RMK A01 T02540192  RH  069%=      5-min Rain = 0
KCO2 270336Z 14008KT 25/19 A3013 RMK A01 T02540192  RH  068%=      5-min Rain = 0
KCO2 270337Z 14007KT 25/19 A3013 RMK A01 T02540192  RH  068%=      5-min Rain = 0
KCO2 270338Z 14007KT 25/19 A3013 RMK A01 T02540192  RH  068%=      5-min Rain = 0
KCO2 270339Z 14007KT 25/19 A3014 RMK A01 T02540192  RH  069%=      5-min Rain = 0
KCO2 270340Z 14007KT 25/19 A3014 RMK A01 T02540192  RH  069%=      5-min Rain = 0
KCO2 270341Z 14008KT 25/19 A3014 RMK A01 T02530192  RH  069%=      5-min Rain = 0
KCO2 270342Z 14008KT 25/19 A3014 RMK A01 T02530192  RH  069%=      5-min Rain = 0
KCO2 270343Z 15007KT 25/19 A3014 RMK A01 T02530192  RH  069%=      5-min Rain = 0
KCO2 270344Z 14008KT 25/19 A3014 RMK A01 T02530191  RH  069%=      5-min Rain = 0
KCO2 270345Z 14007KT 25/19 A3014 RMK A01 T02530191  RH  069%=      5-min Rain = 0
KCO2 270346Z 14007KT 25/19 A3014 RMK A01 T02530191  RH  068%=      5-min Rain = 0
KCO2 270347Z 14006KT 25/19 A3014 RMK A01 T02530192  RH  069%=      5-min Rain = 0
KCO2 270348Z 14007KT 25/19 A3014 RMK A01 T02520191  RH  069%=      5-min Rain = 0
KCO2 270349Z 14007KT 25/19 A3014 RMK A01 T02520192  RH  069%=      5-min Rain = 0
KCO2 270350Z 14007KT 25/19 A3014 RMK A01 T02520192  RH  069%=      5-min Rain = 0
KCO2 270351Z 14007KT 25/19 A3014 RMK A01 T02510191  RH  069%=      5-min Rain = 0
KCO2 270352Z 14006KT 25/19 A3014 RMK A01 T02510192  RH  069%=      5-min Rain = 0
KCO2 270353Z 14006KT 25/19 A3014 RMK A01 T02510191  RH  069%=      5-min Rain = 0
KCO2 270354Z 14007KT 25/19 A3014 RMK A01 T02510191  RH  069%=      5-min Rain = 0
KCO2 270355Z 14006KT 25/19 A3014 RMK A01 T02510191  RH  069%=      5-min Rain = 0
KCO2 270356Z 14006KT 25/19 A3014 RMK A01 T02500191  RH  069%=      5-min Rain = 0
KCO2 270357Z 14008KT 25/19 A3014 RMK A01 T02500191  RH  070%=      5-min Rain = 0
KCO2 270358Z 14006KT 25/19 A3014 RMK A01 T02500190  RH  069%=      5-min Rain = 0
KCO2 270359Z 14007KT 25/19 A3014 RMK A01 T02500190  RH  069%=      5-min Rain = 0
KCO2 270400Z 14006KT 25/19 A3014 RMK A01 T02500190  RH  069%=      5-min Rain = 0
KCO2 270401Z 14006KT 25/19 A3015 RMK A01 T02500190  RH  069%=      5-min Rain = 0
KCO2 270402Z 14006KT 25/19 A3015 RMK A01 T02500190  RH  069%=      5-min Rain = 0
KCO2 270403Z 14007KT 25/19 A3015 RMK A01 T02490190  RH  070%=      5-min Rain = 0
KCO2 270404Z 14007KT 25/19 A3015 RMK A01 T02490190  RH  070%=      5-min Rain = 0
KCO2 270405Z 14007KT 25/19 A3015 RMK A01 T02490190  RH  070%=      5-min Rain = 0
KCO2 270406Z 14006KT 25/19 A3015 RMK A01 T02480189  RH  070%=      5-min Rain = 0
KCO2 270407Z 14007KT 25/19 A3015 RMK A01 T02480189  RH  070%=      5-min Rain = 0
KCO2 270408Z 14006KT 25/19 A3015 RMK A01 T02480189  RH  070%=      5-min Rain = 0
KCO2 270409Z 14006KT 25/19 A3015 RMK A01 T02480189  RH  070%=      5-min Rain = 0
KCO2 270410Z 14006KT 25/19 A3015 RMK A01 T02480189  RH  070%=      5-min Rain = 0
KCO2 270411Z 14007KT 25/19 A3015 RMK A01 T02470189  RH  070%=      5-min Rain = 0
KCO2 270412Z 14007KT 25/19 A3015 RMK A01 T02470189  RH  070%=      5-min Rain = 0
KCO2 270413Z 14007KT 25/19 A3015 RMK A01 T02470189  RH  070%=      5-min Rain = 0
KCO2 270414Z 14007KT 25/19 A3015 RMK A01 T02470188  RH  070%=      5-min Rain = 0
KCO2 270415Z 14007KT 25/19 A3015 RMK A01 T02480188  RH  069%=      5-min Rain = 0
KCO2 270416Z 14007KT 25/19 A3015 RMK A01 T02470188  RH  069%=      5-min Rain = 0
KCO2 270417Z 14006KT 25/19 A3015 RMK A01 T02480188  RH  069%=      5-min Rain = 0
KCO2 270418Z 14007KT 25/19 A3016 RMK A01 T02480188  RH  070%=      5-min Rain = 0
KCO2 270419Z 14007KT 25/19 A3016 RMK A01 T02470188  RH  070%=      5-min Rain = 0
KCO2 270420Z 14007KT 25/19 A3016 RMK A01 T02470188  RH  070%=      5-min Rain = 0
KCO2 270421Z 14007KT 25/19 A3016 RMK A01 T02470188  RH  070%=      5-min Rain = 0
KCO2 270422Z 15007KT 25/19 A3016 RMK A01 T02470188  RH  070%=      5-min Rain = 0
KCO2 270423Z 14007KT 25/19 A3016 RMK A01 T02470188  RH  070%=      5-min Rain = 0
KCO2 270424Z 15008KT 25/19 A3016 RMK A01 T02460188  RH  070%=      5-min Rain = 0
KCO2 270425Z 15007KT 25/19 A3016 RMK A01 T02470187  RH  069%=      5-min Rain = 0
KCO2 270426Z 15007KT 25/19 A3016 RMK A01 T02470187  RH  069%=      5-min Rain = 0
KCO2 270427Z 15007KT 25/19 A3016 RMK A01 T02470187  RH  069%=      5-min Rain = 0
KCO2 270428Z 15007KT 25/19 A3016 RMK A01 T02470187  RH  069%=      5-min Rain = 0
KCO2 270429Z 15007KT 25/19 A3016 RMK A01 T02470188  RH  070%=      5-min Rain = 0
KCO2 270430Z 15008KT 25/19 A3016 RMK A01 T02460188  RH  070%=      5-min Rain = 0
KCO2 270431Z 15007KT 25/19 A3016 RMK A01 T02460187  RH  070%=      5-min Rain = 0
KCO2 270432Z 14007KT 25/19 A3016 RMK A01 T02470187  RH  070%=      5-min Rain = 0
KCO2 270433Z 15007KT 25/19 A3016 RMK A01 T02470188  RH  070%=      5-min Rain = 0
KCO2 270434Z 15007KT 25/19 A3016 RMK A01 T02460188  RH  070%=      5-min Rain = 0
KCO2 270435Z 15007KT 25/19 A3016 RMK A01 T02460188  RH  070%=      5-min Rain = 0
KCO2 270436Z 15007KT 25/19 A3016 RMK A01 T02460187  RH  070%=      5-min Rain = 0
KCO2 270437Z 15007KT 25/19 A3016 RMK A01 T02460187  RH  070%=      5-min Rain = 0
KCO2 270438Z 15007KT 25/19 A3016 RMK A01 T02460187  RH  070%=      5-min Rain = 0
KCO2 270439Z 15007KT 25/19 A3016 RMK A01 T02460187  RH  070%=      5-min Rain = 0
KCO2 270440Z 15007KT 25/19 A3016 RMK A01 T02460187  RH  070%=      5-min Rain = 0
KCO2 270441Z 15007KT 25/19 A3016 RMK A01 T02450187  RH  070%=      5-min Rain = 0
KCO2 270442Z 15006KT 25/19 A3016 RMK A01 T02450187  RH  070%=      5-min Rain = 0
KCO2 270443Z 14007KT 24/19 A3016 RMK A01 T02440187  RH  070%=      5-min Rain = 0
KCO2 270444Z 14006KT 24/19 A3016 RMK A01 T02430186  RH  070%=      5-min Rain = 0
KCO2 270445Z 14008KT 24/19 A3016 RMK A01 T02430187  RH  071%=      5-min Rain = 0
KCO2 270446Z 15008KT 24/19 A3016 RMK A01 T02430186  RH  071%=      5-min Rain = 0
KCO2 270447Z 14007KT 24/19 A3016 RMK A01 T02430187  RH  071%=      5-min Rain = 0
KCO2 270448Z 15006KT 24/19 A3016 RMK A01 T02430186  RH  071%=      5-min Rain = 0
KCO2 270449Z 14007KT 24/19 A3016 RMK A01 T02420186  RH  071%=      5-min Rain = 0
KCO2 270450Z 14007KT 24/19 A3016 RMK A01 T02410186  RH  071%=      5-min Rain = 0
KCO2 270451Z 14008KT 24/19 A3016 RMK A01 T02410186  RH  071%=      5-min Rain = 0
KCO2 270452Z 15007KT 24/19 A3016 RMK A01 T02410186  RH  071%=      5-min Rain = 0
KCO2 270453Z 14007KT 24/19 A3015 RMK A01 T02410186  RH  071%=      5-min Rain = 0
KCO2 270454Z 14008KT 24/19 A3015 RMK A01 T02410186  RH  071%=      5-min Rain = 0
KCO2 270455Z 14008KT 24/19 A3015 RMK A01 T02410186  RH  071%=      5-min Rain = 0
KCO2 270456Z 14007KT 24/19 A3015 RMK A01 T02410185  RH  071%=      5-min Rain = 0
KCO2 270457Z 14009KT 24/19 A3015 RMK A01 T02410186  RH  071%=      5-min Rain = 0
KCO2 270458Z 14008KT 24/19 A3015 RMK A01 T02400186  RH  071%=      5-min Rain = 0
KCO2 270459Z 14008KT 24/19 A3015 RMK A01 T02410186  RH  071%=      5-min Rain = 0

Page generated in 0.1308 seconds.